<?xml version="1.0" encoding="UTF-8" standalone="no" ?>
<gpx xmlns="http://www.topografix.com/GPX/1/1" xmlns:xsi="http://www.w3.org/2001/XMLSchema-instance" xsi:schemaLocation="http://www.topografix.com/GPX/1/1 http://www.topografix.com/GPX/1/1/gpx.xsd" version="1.1" creator="VisuGPX - https://www.visugpx.com">
  <metadata>
    <name>84-5km_2024</name>
  </metadata>
  <trk>
    <name><![CDATA[84-5km_2024]]></name>
    <extensions>
      <line xmlns="http://www.topografix.com/GPX/gpx_style/0/2">
        <color>0000FF</color>
        <width>4</width>
      </line>
    </extensions>
    <trkseg>
      <trkpt lat="50.6506" lon="2.83131">
        <ele>17.4</ele>
        <time>2024-07-30T12:42:03.839Z</time>
      </trkpt>
      <trkpt lat="50.65071" lon="2.83117">
        <ele>17.4</ele>
        <time>2024-07-30T12:42:19.481Z</time>
      </trkpt>
      <trkpt lat="50.65057" lon="2.83085">
        <ele>17.4</ele>
        <time>2024-07-30T12:42:23.101Z</time>
      </trkpt>
      <trkpt lat="50.65054" lon="2.83079">
        <ele>17.4</ele>
        <time>2024-07-30T12:42:23.932Z</time>
      </trkpt>
      <trkpt lat="50.65006" lon="2.82971">
        <ele>17.387073</ele>
        <time>2024-07-30T12:42:36.545Z</time>
      </trkpt>
      <trkpt lat="50.64921" lon="2.82822">
        <ele>17.342938</ele>
        <time>2024-07-30T12:42:55.289Z</time>
      </trkpt>
      <trkpt lat="50.64889" lon="2.82766">
        <ele>17.282546</ele>
        <time>2024-07-30T12:43:02.076Z</time>
      </trkpt>
      <trkpt lat="50.64756" lon="2.82615">
        <ele>17.021968</ele>
        <time>2024-07-30T12:43:25.133Z</time>
      </trkpt>
      <trkpt lat="50.64728" lon="2.82572">
        <ele>17.005545</ele>
        <time>2024-07-30T12:43:30.815Z</time>
      </trkpt>
      <trkpt lat="50.64572" lon="2.82303">
        <ele>16.981051</ele>
        <time>2024-07-30T12:44:05.092Z</time>
      </trkpt>
      <trkpt lat="50.64453" lon="2.82144">
        <ele>17.043266</ele>
        <time>2024-07-30T12:44:28.266Z</time>
      </trkpt>
      <trkpt lat="50.64275" lon="2.81979">
        <ele>17.157695</ele>
        <time>2024-07-30T12:44:59.751Z</time>
      </trkpt>
      <trkpt lat="50.64121" lon="2.81709">
        <ele>17.167105</ele>
        <time>2024-07-30T12:45:33.754Z</time>
      </trkpt>
      <trkpt lat="50.63988" lon="2.81511">
        <ele>16.953944</ele>
        <time>2024-07-30T12:46:00.218Z</time>
      </trkpt>
      <trkpt lat="50.63924" lon="2.81294">
        <ele>16.56291</ele>
        <time>2024-07-30T12:46:21.394Z</time>
      </trkpt>
      <trkpt lat="50.63887" lon="2.81129">
        <ele>16.403575</ele>
        <time>2024-07-30T12:46:36.542Z</time>
      </trkpt>
      <trkpt lat="50.63812" lon="2.80966">
        <ele>16.39329</ele>
        <time>2024-07-30T12:46:55.847Z</time>
      </trkpt>
      <trkpt lat="50.63777" lon="2.80911">
        <ele>16.568574</ele>
        <time>2024-07-30T12:47:03.858Z</time>
      </trkpt>
      <trkpt lat="50.63698" lon="2.80799">
        <ele>16.951233</ele>
        <time>2024-07-30T12:47:21.555Z</time>
      </trkpt>
      <trkpt lat="50.63643" lon="2.80722">
        <ele>17.06231</ele>
        <time>2024-07-30T12:47:33.413Z</time>
      </trkpt>
      <trkpt lat="50.63411" lon="2.80523">
        <ele>17.087141</ele>
        <time>2024-07-30T12:48:12.405Z</time>
      </trkpt>
      <trkpt lat="50.63347" lon="2.80435">
        <ele>16.969321</ele>
        <time>2024-07-30T12:48:24.047Z</time>
      </trkpt>
      <trkpt lat="50.63406" lon="2.80297">
        <ele>16.779741</ele>
        <time>2024-07-30T12:48:39.165Z</time>
      </trkpt>
      <trkpt lat="50.63464" lon="2.80176">
        <ele>16.614975</ele>
        <time>2024-07-30T12:48:52.723Z</time>
      </trkpt>
      <trkpt lat="50.63531" lon="2.80065">
        <ele>16.45103</ele>
        <time>2024-07-30T12:49:06.788Z</time>
      </trkpt>
      <trkpt lat="50.63592" lon="2.79943">
        <ele>16.275121</ele>
        <time>2024-07-30T12:49:20.455Z</time>
      </trkpt>
      <trkpt lat="50.63624" lon="2.79897">
        <ele>16.195906</ele>
        <time>2024-07-30T12:49:26.650Z</time>
      </trkpt>
      <trkpt lat="50.63661" lon="2.79846">
        <ele>16.114453</ele>
        <time>2024-07-30T12:49:33.666Z</time>
      </trkpt>
      <trkpt lat="50.63626" lon="2.79733">
        <ele>16.194828</ele>
        <time>2024-07-30T12:49:45.619Z</time>
      </trkpt>
      <trkpt lat="50.63617" lon="2.79666">
        <ele>16.238169</ele>
        <time>2024-07-30T12:49:52.438Z</time>
      </trkpt>
      <trkpt lat="50.63603" lon="2.79621">
        <ele>16.270418</ele>
        <time>2024-07-30T12:49:57.511Z</time>
      </trkpt>
      <trkpt lat="50.63536" lon="2.79466">
        <ele>16.423202</ele>
        <time>2024-07-30T12:50:15.672Z</time>
      </trkpt>
      <trkpt lat="50.63529" lon="2.79455">
        <ele>16.436402</ele>
        <time>2024-07-30T12:50:17.152Z</time>
      </trkpt>
      <trkpt lat="50.63498" lon="2.79421">
        <ele>16.488603</ele>
        <time>2024-07-30T12:50:23.083Z</time>
      </trkpt>
      <trkpt lat="50.63483" lon="2.79414">
        <ele>16.509638</ele>
        <time>2024-07-30T12:50:25.446Z</time>
      </trkpt>
      <trkpt lat="50.63454" lon="2.79385">
        <ele>16.542515</ele>
        <time>2024-07-30T12:50:30.631Z</time>
      </trkpt>
      <trkpt lat="50.63433" lon="2.79351">
        <ele>16.554232</ele>
        <time>2024-07-30T12:50:35.115Z</time>
      </trkpt>
      <trkpt lat="50.63386" lon="2.79271">
        <ele>16.581254</ele>
        <time>2024-07-30T12:50:45.280Z</time>
      </trkpt>
      <trkpt lat="50.63373" lon="2.79219">
        <ele>16.59498</ele>
        <time>2024-07-30T12:50:50.692Z</time>
      </trkpt>
      <trkpt lat="50.63367" lon="2.79197">
        <ele>16.60089</ele>
        <time>2024-07-30T12:50:53.056Z</time>
      </trkpt>
      <trkpt lat="50.63352" lon="2.79171">
        <ele>16.606564</ele>
        <time>2024-07-30T12:50:56.525Z</time>
      </trkpt>
      <trkpt lat="50.63303" lon="2.79111">
        <ele>16.600275</ele>
        <time>2024-07-30T12:51:05.715Z</time>
      </trkpt>
      <trkpt lat="50.63232" lon="2.79032">
        <ele>16.591326</ele>
        <time>2024-07-30T12:51:18.384Z</time>
      </trkpt>
      <trkpt lat="50.6312" lon="2.78884">
        <ele>16.472925</ele>
        <time>2024-07-30T12:51:39.644Z</time>
      </trkpt>
      <trkpt lat="50.63005" lon="2.78747">
        <ele>16.313927</ele>
        <time>2024-07-30T12:52:00.447Z</time>
      </trkpt>
      <trkpt lat="50.62997" lon="2.78727">
        <ele>16.296163</ele>
        <time>2024-07-30T12:52:02.449Z</time>
      </trkpt>
      <trkpt lat="50.62998" lon="2.78701">
        <ele>16.276227</ele>
        <time>2024-07-30T12:52:04.924Z</time>
      </trkpt>
      <trkpt lat="50.63003" lon="2.78672">
        <ele>16.252972</ele>
        <time>2024-07-30T12:52:07.602Z</time>
      </trkpt>
      <trkpt lat="50.63005" lon="2.78639">
        <ele>16.227537</ele>
        <time>2024-07-30T12:52:10.765Z</time>
      </trkpt>
      <trkpt lat="50.63014" lon="2.78625">
        <ele>16.212052</ele>
        <time>2024-07-30T12:52:12.527Z</time>
      </trkpt>
      <trkpt lat="50.63173" lon="2.78261">
        <ele>16.119502</ele>
        <time>2024-07-30T12:52:53.632Z</time>
      </trkpt>
      <trkpt lat="50.63236" lon="2.78134">
        <ele>16.188428</ele>
        <time>2024-07-30T12:53:09.369Z</time>
      </trkpt>
      <trkpt lat="50.63304" lon="2.78005">
        <ele>16.315669</ele>
        <time>2024-07-30T12:53:25.818Z</time>
      </trkpt>
      <trkpt lat="50.6338" lon="2.77875">
        <ele>16.324654</ele>
        <time>2024-07-30T12:53:42.564Z</time>
      </trkpt>
      <trkpt lat="50.63481" lon="2.77686">
        <ele>16.14958</ele>
        <time>2024-07-30T12:54:04.688Z</time>
      </trkpt>
      <trkpt lat="50.63633" lon="2.77395">
        <ele>16.039615</ele>
        <time>2024-07-30T12:54:39.561Z</time>
      </trkpt>
      <trkpt lat="50.63679" lon="2.77302">
        <ele>16.041811</ele>
        <time>2024-07-30T12:54:50.793Z</time>
      </trkpt>
      <trkpt lat="50.63663" lon="2.77282">
        <ele>16.048184</ele>
        <time>2024-07-30T12:54:53.801Z</time>
      </trkpt>
      <trkpt lat="50.63576" lon="2.77209">
        <ele>16.218179</ele>
        <time>2024-07-30T12:55:09.033Z</time>
      </trkpt>
      <trkpt lat="50.63559" lon="2.77196">
        <ele>16.251728</ele>
        <time>2024-07-30T12:55:12.059Z</time>
      </trkpt>
      <trkpt lat="50.63524" lon="2.77179">
        <ele>16.314963</ele>
        <time>2024-07-30T12:55:17.725Z</time>
      </trkpt>
      <trkpt lat="50.63495" lon="2.77159">
        <ele>16.394854</ele>
        <time>2024-07-30T12:55:22.717Z</time>
      </trkpt>
      <trkpt lat="50.63419" lon="2.77088">
        <ele>16.791405</ele>
        <time>2024-07-30T12:55:37.331Z</time>
      </trkpt>
      <trkpt lat="50.63371" lon="2.77052">
        <ele>17.026326</ele>
        <time>2024-07-30T12:55:46.491Z</time>
      </trkpt>
      <trkpt lat="50.63318" lon="2.77018">
        <ele>17.203269</ele>
        <time>2024-07-30T12:55:56.329Z</time>
      </trkpt>
      <trkpt lat="50.63318" lon="2.77012">
        <ele>17.209225</ele>
        <time>2024-07-30T12:55:57.000Z</time>
      </trkpt>
      <trkpt lat="50.63313" lon="2.77007">
        <ele>17.218112</ele>
        <time>2024-07-30T12:55:57.868Z</time>
      </trkpt>
      <trkpt lat="50.63321" lon="2.76986">
        <ele>17.242797</ele>
        <time>2024-07-30T12:56:00.257Z</time>
      </trkpt>
      <trkpt lat="50.6334" lon="2.76909">
        <ele>17.327383</ele>
        <time>2024-07-30T12:56:08.662Z</time>
      </trkpt>
      <trkpt lat="50.63352" lon="2.76858">
        <ele>17.383179</ele>
        <time>2024-07-30T12:56:13.912Z</time>
      </trkpt>
      <trkpt lat="50.6336" lon="2.76824">
        <ele>17.42092</ele>
        <time>2024-07-30T12:56:17.235Z</time>
      </trkpt>
      <trkpt lat="50.63422" lon="2.76575">
        <ele>16.794803</ele>
        <time>2024-07-30T12:56:39.808Z</time>
      </trkpt>
      <trkpt lat="50.63439" lon="2.7648">
        <ele>16.547538</ele>
        <time>2024-07-30T12:56:48.030Z</time>
      </trkpt>
      <trkpt lat="50.63466" lon="2.76272">
        <ele>16.055116</ele>
        <time>2024-07-30T12:57:06.380Z</time>
      </trkpt>
      <trkpt lat="50.63475" lon="2.76229">
        <ele>16.000438</ele>
        <time>2024-07-30T12:57:10.501Z</time>
      </trkpt>
      <trkpt lat="50.63503" lon="2.76131">
        <ele>15.935052</ele>
        <time>2024-07-30T12:57:20.375Z</time>
      </trkpt>
      <trkpt lat="50.63533" lon="2.75966">
        <ele>15.851846</ele>
        <time>2024-07-30T12:57:36.114Z</time>
      </trkpt>
      <trkpt lat="50.63539" lon="2.75943">
        <ele>15.858373</ele>
        <time>2024-07-30T12:57:38.561Z</time>
      </trkpt>
      <trkpt lat="50.63568" lon="2.75869">
        <ele>15.880777</ele>
        <time>2024-07-30T12:57:46.991Z</time>
      </trkpt>
      <trkpt lat="50.63575" lon="2.75838">
        <ele>15.889147</ele>
        <time>2024-07-30T12:57:50.163Z</time>
      </trkpt>
      <trkpt lat="50.63576" lon="2.75776">
        <ele>15.905307</ele>
        <time>2024-07-30T12:57:56.247Z</time>
      </trkpt>
      <trkpt lat="50.63573" lon="2.75716">
        <ele>15.914417</ele>
        <time>2024-07-30T12:58:01.955Z</time>
      </trkpt>
      <trkpt lat="50.63565" lon="2.75673">
        <ele>15.894584</ele>
        <time>2024-07-30T12:58:06.100Z</time>
      </trkpt>
      <trkpt lat="50.63527" lon="2.75551">
        <ele>15.834236</ele>
        <time>2024-07-30T12:58:18.712Z</time>
      </trkpt>
      <trkpt lat="50.6349" lon="2.75465">
        <ele>15.787025</ele>
        <time>2024-07-30T12:58:28.138Z</time>
      </trkpt>
      <trkpt lat="50.63484" lon="2.75445">
        <ele>15.776306</ele>
        <time>2024-07-30T12:58:30.035Z</time>
      </trkpt>
      <trkpt lat="50.63482" lon="2.75424">
        <ele>15.765254</ele>
        <time>2024-07-30T12:58:31.967Z</time>
      </trkpt>
      <trkpt lat="50.63483" lon="2.75401">
        <ele>15.753834</ele>
        <time>2024-07-30T12:58:34.007Z</time>
      </trkpt>
      <trkpt lat="50.63486" lon="2.75306">
        <ele>15.706039</ele>
        <time>2024-07-30T12:58:42.533Z</time>
      </trkpt>
      <trkpt lat="50.63492" lon="2.75244">
        <ele>15.674436</ele>
        <time>2024-07-30T12:58:48.364Z</time>
      </trkpt>
      <trkpt lat="50.63545" lon="2.74989">
        <ele>15.777434</ele>
        <time>2024-07-30T12:59:14.457Z</time>
      </trkpt>
      <trkpt lat="50.63605" lon="2.74677">
        <ele>15.886221</ele>
        <time>2024-07-30T12:59:45.463Z</time>
      </trkpt>
      <trkpt lat="50.63608" lon="2.74646">
        <ele>15.890236</ele>
        <time>2024-07-30T12:59:48.455Z</time>
      </trkpt>
      <trkpt lat="50.63607" lon="2.74621">
        <ele>15.884027</ele>
        <time>2024-07-30T12:59:50.917Z</time>
      </trkpt>
      <trkpt lat="50.63591" lon="2.74519">
        <ele>15.858548</ele>
        <time>2024-07-30T13:00:00.834Z</time>
      </trkpt>
      <trkpt lat="50.63592" lon="2.74508">
        <ele>15.855746</ele>
        <time>2024-07-30T13:00:01.924Z</time>
      </trkpt>
      <trkpt lat="50.63596" lon="2.74498">
        <ele>15.852946</ele>
        <time>2024-07-30T13:00:03.024Z</time>
      </trkpt>
      <trkpt lat="50.6366" lon="2.74449">
        <ele>15.825841</ele>
        <time>2024-07-30T13:00:13.362Z</time>
      </trkpt>
      <trkpt lat="50.63716" lon="2.74391">
        <ele>15.654166</ele>
        <time>2024-07-30T13:00:22.865Z</time>
      </trkpt>
      <trkpt lat="50.63835" lon="2.74314">
        <ele>15.31545</ele>
        <time>2024-07-30T13:00:40.317Z</time>
      </trkpt>
      <trkpt lat="50.6388" lon="2.74267">
        <ele>15.250949</ele>
        <time>2024-07-30T13:00:47.830Z</time>
      </trkpt>
      <trkpt lat="50.63887" lon="2.74257">
        <ele>15.239982</ele>
        <time>2024-07-30T13:00:49.120Z</time>
      </trkpt>
      <trkpt lat="50.63858" lon="2.74046">
        <ele>15.161151</ele>
        <time>2024-07-30T13:01:09.374Z</time>
      </trkpt>
      <trkpt lat="50.63851" lon="2.7393">
        <ele>15.279942</ele>
        <time>2024-07-30T13:01:21.037Z</time>
      </trkpt>
      <trkpt lat="50.63849" lon="2.73915">
        <ele>15.295014</ele>
        <time>2024-07-30T13:01:22.583Z</time>
      </trkpt>
      <trkpt lat="50.63843" lon="2.73827">
        <ele>15.384854</ele>
        <time>2024-07-30T13:01:31.434Z</time>
      </trkpt>
      <trkpt lat="50.63825" lon="2.73714">
        <ele>15.468755</ele>
        <time>2024-07-30T13:01:42.895Z</time>
      </trkpt>
      <trkpt lat="50.63812" lon="2.73667">
        <ele>15.503379</ele>
        <time>2024-07-30T13:01:47.856Z</time>
      </trkpt>
      <trkpt lat="50.63798" lon="2.73668">
        <ele>15.518477</ele>
        <time>2024-07-30T13:01:49.948Z</time>
      </trkpt>
      <trkpt lat="50.63753" lon="2.73671">
        <ele>15.566362</ele>
        <time>2024-07-30T13:01:56.614Z</time>
      </trkpt>
      <trkpt lat="50.63702" lon="2.73689">
        <ele>15.579601</ele>
        <time>2024-07-30T13:02:04.442Z</time>
      </trkpt>
      <trkpt lat="50.63552" lon="2.73756">
        <ele>15.505264</ele>
        <time>2024-07-30T13:02:27.064Z</time>
      </trkpt>
      <trkpt lat="50.6351" lon="2.7377">
        <ele>15.468377</ele>
        <time>2024-07-30T13:02:33.293Z</time>
      </trkpt>
      <trkpt lat="50.63487" lon="2.73761">
        <ele>15.447626</ele>
        <time>2024-07-30T13:02:36.862Z</time>
      </trkpt>
      <trkpt lat="50.63476" lon="2.73752">
        <ele>15.437293</ele>
        <time>2024-07-30T13:02:38.596Z</time>
      </trkpt>
      <trkpt lat="50.63473" lon="2.73736">
        <ele>15.427875</ele>
        <time>2024-07-30T13:02:40.220Z</time>
      </trkpt>
      <trkpt lat="50.63461" lon="2.73718">
        <ele>15.414222</ele>
        <time>2024-07-30T13:02:42.548Z</time>
      </trkpt>
      <trkpt lat="50.63455" lon="2.73715">
        <ele>15.408652</ele>
        <time>2024-07-30T13:02:43.469Z</time>
      </trkpt>
      <trkpt lat="50.6344" lon="2.73716">
        <ele>15.395669</ele>
        <time>2024-07-30T13:02:45.694Z</time>
      </trkpt>
      <trkpt lat="50.63434" lon="2.73722">
        <ele>15.38911</ele>
        <time>2024-07-30T13:02:46.810Z</time>
      </trkpt>
      <trkpt lat="50.63426" lon="2.73737">
        <ele>15.378499</ele>
        <time>2024-07-30T13:02:48.568Z</time>
      </trkpt>
      <trkpt lat="50.63422" lon="2.73735">
        <ele>15.374898</ele>
        <time>2024-07-30T13:02:49.171Z</time>
      </trkpt>
      <trkpt lat="50.63412" lon="2.73708">
        <ele>15.35816</ele>
        <time>2024-07-30T13:02:52.006Z</time>
      </trkpt>
      <trkpt lat="50.6342" lon="2.73673">
        <ele>15.347503</ele>
        <time>2024-07-30T13:02:55.413Z</time>
      </trkpt>
      <trkpt lat="50.63423" lon="2.73647">
        <ele>15.341955</ele>
        <time>2024-07-30T13:02:57.785Z</time>
      </trkpt>
      <trkpt lat="50.63421" lon="2.73561">
        <ele>15.323433</ele>
        <time>2024-07-30T13:03:05.735Z</time>
      </trkpt>
      <trkpt lat="50.63423" lon="2.73477">
        <ele>15.305468</ele>
        <time>2024-07-30T13:03:13.828Z</time>
      </trkpt>
      <trkpt lat="50.63428" lon="2.73411">
        <ele>15.288666</ele>
        <time>2024-07-30T13:03:20.119Z</time>
      </trkpt>
      <trkpt lat="50.63436" lon="2.73343">
        <ele>15.252779</ele>
        <time>2024-07-30T13:03:26.598Z</time>
      </trkpt>
      <trkpt lat="50.63454" lon="2.73241">
        <ele>15.197703</ele>
        <time>2024-07-30T13:03:36.240Z</time>
      </trkpt>
      <trkpt lat="50.6348" lon="2.73107">
        <ele>15.159702</ele>
        <time>2024-07-30T13:03:49.094Z</time>
      </trkpt>
      <trkpt lat="50.63494" lon="2.73056">
        <ele>15.177465</ele>
        <time>2024-07-30T13:03:54.330Z</time>
      </trkpt>
      <trkpt lat="50.63512" lon="2.7296">
        <ele>15.209716</ele>
        <time>2024-07-30T13:04:03.851Z</time>
      </trkpt>
      <trkpt lat="50.63523" lon="2.72852">
        <ele>15.261379</ele>
        <time>2024-07-30T13:04:14.388Z</time>
      </trkpt>
      <trkpt lat="50.63526" lon="2.72797">
        <ele>15.319557</ele>
        <time>2024-07-30T13:04:19.776Z</time>
      </trkpt>
      <trkpt lat="50.63524" lon="2.72728">
        <ele>15.393063</ele>
        <time>2024-07-30T13:04:26.619Z</time>
      </trkpt>
      <trkpt lat="50.63521" lon="2.72717">
        <ele>15.405934</ele>
        <time>2024-07-30T13:04:27.841Z</time>
      </trkpt>
      <trkpt lat="50.63514" lon="2.72711">
        <ele>15.419092</ele>
        <time>2024-07-30T13:04:29.094Z</time>
      </trkpt>
      <trkpt lat="50.63485" lon="2.72706">
        <ele>15.46844</ele>
        <time>2024-07-30T13:04:33.727Z</time>
      </trkpt>
      <trkpt lat="50.63472" lon="2.7269">
        <ele>15.495456</ele>
        <time>2024-07-30T13:04:36.253Z</time>
      </trkpt>
      <trkpt lat="50.6345" lon="2.72634">
        <ele>15.565972</ele>
        <time>2024-07-30T13:04:42.729Z</time>
      </trkpt>
      <trkpt lat="50.6344" lon="2.72562">
        <ele>15.645456</ele>
        <time>2024-07-30T13:04:49.845Z</time>
      </trkpt>
      <trkpt lat="50.63258" lon="2.72119">
        <ele>16.244665</ele>
        <time>2024-07-30T13:05:42.427Z</time>
      </trkpt>
      <trkpt lat="50.63167" lon="2.71894">
        <ele>16.378705</ele>
        <time>2024-07-30T13:06:07.774Z</time>
      </trkpt>
      <trkpt lat="50.63142" lon="2.71839">
        <ele>16.380898</ele>
        <time>2024-07-30T13:06:14.138Z</time>
      </trkpt>
      <trkpt lat="50.63084" lon="2.71755">
        <ele>16.384877</ele>
        <time>2024-07-30T13:06:25.692Z</time>
      </trkpt>
      <trkpt lat="50.63029" lon="2.71676">
        <ele>16.365402</ele>
        <time>2024-07-30T13:06:36.624Z</time>
      </trkpt>
      <trkpt lat="50.62993" lon="2.71636">
        <ele>16.34449</ele>
        <time>2024-07-30T13:06:42.995Z</time>
      </trkpt>
      <trkpt lat="50.62935" lon="2.71586">
        <ele>16.312318</ele>
        <time>2024-07-30T13:06:52.737Z</time>
      </trkpt>
      <trkpt lat="50.62862" lon="2.71488">
        <ele>16.3</ele>
        <time>2024-07-30T13:07:11.948Z</time>
      </trkpt>
      <trkpt lat="50.62736" lon="2.71277">
        <ele>16.325256</ele>
        <time>2024-07-30T13:07:49.298Z</time>
      </trkpt>
      <trkpt lat="50.62719" lon="2.71252">
        <ele>16.333011</ele>
        <time>2024-07-30T13:07:53.946Z</time>
      </trkpt>
      <trkpt lat="50.62656" lon="2.71189">
        <ele>16.358453</ele>
        <time>2024-07-30T13:08:09.234Z</time>
      </trkpt>
      <trkpt lat="50.62638" lon="2.71145">
        <ele>16.38076</ele>
        <time>2024-07-30T13:08:16.114Z</time>
      </trkpt>
      <trkpt lat="50.62636" lon="2.71031">
        <ele>16.436489</ele>
        <time>2024-07-30T13:08:31.080Z</time>
      </trkpt>
      <trkpt lat="50.6259" lon="2.70784">
        <ele>16.479209</ele>
        <time>2024-07-30T13:09:04.219Z</time>
      </trkpt>
      <trkpt lat="50.62577" lon="2.70715">
        <ele>16.4676</ele>
        <time>2024-07-30T13:09:13.414Z</time>
      </trkpt>
      <trkpt lat="50.62532" lon="2.70538">
        <ele>16.45328</ele>
        <time>2024-07-30T13:09:37.700Z</time>
      </trkpt>
      <trkpt lat="50.62491" lon="2.70401">
        <ele>16.452132</ele>
        <time>2024-07-30T13:09:57.091Z</time>
      </trkpt>
      <trkpt lat="50.62408" lon="2.70148">
        <ele>16.655646</ele>
        <time>2024-07-30T13:10:34.583Z</time>
      </trkpt>
      <trkpt lat="50.62365" lon="2.69993">
        <ele>16.53854</ele>
        <time>2024-07-30T13:10:56.201Z</time>
      </trkpt>
      <trkpt lat="50.62334" lon="2.69838">
        <ele>16.364206</ele>
        <time>2024-07-30T13:11:15.959Z</time>
      </trkpt>
      <trkpt lat="50.62337" lon="2.69827">
        <ele>16.341748</ele>
        <time>2024-07-30T13:11:17.342Z</time>
      </trkpt>
      <trkpt lat="50.6233" lon="2.69822">
        <ele>16.318242</ele>
        <time>2024-07-30T13:11:18.798Z</time>
      </trkpt>
      <trkpt lat="50.62304" lon="2.69761">
        <ele>16.178608</ele>
        <time>2024-07-30T13:11:27.549Z</time>
      </trkpt>
      <trkpt lat="50.62298" lon="2.69744">
        <ele>16.142512</ele>
        <time>2024-07-30T13:11:29.858Z</time>
      </trkpt>
      <trkpt lat="50.62272" lon="2.69679">
        <ele>15.995666</ele>
        <time>2024-07-30T13:11:36.574Z</time>
      </trkpt>
      <trkpt lat="50.6226" lon="2.69654">
        <ele>15.935869</ele>
        <time>2024-07-30T13:11:40.471Z</time>
      </trkpt>
      <trkpt lat="50.62249" lon="2.69633">
        <ele>15.883543</ele>
        <time>2024-07-30T13:11:43.857Z</time>
      </trkpt>
      <trkpt lat="50.62177" lon="2.6956">
        <ele>15.961358</ele>
        <time>2024-07-30T13:12:00.948Z</time>
      </trkpt>
      <trkpt lat="50.62117" lon="2.69495">
        <ele>16.044823</ele>
        <time>2024-07-30T13:12:16.434Z</time>
      </trkpt>
      <trkpt lat="50.62059" lon="2.69425">
        <ele>16.171386</ele>
        <time>2024-07-30T13:12:32.175Z</time>
      </trkpt>
      <trkpt lat="50.62013" lon="2.69363">
        <ele>16.297185</ele>
        <time>2024-07-30T13:12:44.982Z</time>
      </trkpt>
      <trkpt lat="50.62001" lon="2.69352">
        <ele>16.32611</ele>
        <time>2024-07-30T13:12:47.887Z</time>
      </trkpt>
      <trkpt lat="50.61984" lon="2.69355">
        <ele>16.360514</ele>
        <time>2024-07-30T13:12:51.297Z</time>
      </trkpt>
      <trkpt lat="50.61968" lon="2.69364">
        <ele>16.395807</ele>
        <time>2024-07-30T13:12:54.862Z</time>
      </trkpt>
      <trkpt lat="50.61953" lon="2.69363">
        <ele>16.428401</ele>
        <time>2024-07-30T13:12:58.114Z</time>
      </trkpt>
      <trkpt lat="50.61938" lon="2.69346">
        <ele>16.446896</ele>
        <time>2024-07-30T13:13:01.814Z</time>
      </trkpt>
      <trkpt lat="50.61905" lon="2.69282">
        <ele>16.444661</ele>
        <time>2024-07-30T13:13:12.460Z</time>
      </trkpt>
      <trkpt lat="50.61884" lon="2.69233">
        <ele>16.443044</ele>
        <time>2024-07-30T13:13:20.072Z</time>
      </trkpt>
      <trkpt lat="50.61858" lon="2.69194">
        <ele>16.441499</ele>
        <time>2024-07-30T13:13:27.292Z</time>
      </trkpt>
      <trkpt lat="50.61848" lon="2.69192">
        <ele>16.441061</ele>
        <time>2024-07-30T13:13:29.307Z</time>
      </trkpt>
      <trkpt lat="50.61816" lon="2.69197">
        <ele>16.439676</ele>
        <time>2024-07-30T13:13:35.747Z</time>
      </trkpt>
      <trkpt lat="50.61678" lon="2.69205">
        <ele>16.386478</ele>
        <time>2024-07-30T13:14:03.243Z</time>
      </trkpt>
      <trkpt lat="50.6161" lon="2.69218">
        <ele>16.384746</ele>
        <time>2024-07-30T13:14:17.020Z</time>
      </trkpt>
      <trkpt lat="50.61567" lon="2.69214">
        <ele>16.41479</ele>
        <time>2024-07-30T13:14:25.968Z</time>
      </trkpt>
      <trkpt lat="50.6153" lon="2.69199">
        <ele>16.440843</ele>
        <time>2024-07-30T13:14:33.764Z</time>
      </trkpt>
      <trkpt lat="50.6147" lon="2.69162">
        <ele>16.484507</ele>
        <time>2024-07-30T13:14:46.949Z</time>
      </trkpt>
      <trkpt lat="50.61456" lon="2.69144">
        <ele>16.502905</ele>
        <time>2024-07-30T13:14:50.751Z</time>
      </trkpt>
      <trkpt lat="50.61443" lon="2.69125">
        <ele>16.528065</ele>
        <time>2024-07-30T13:14:54.442Z</time>
      </trkpt>
      <trkpt lat="50.61407" lon="2.69042">
        <ele>16.618821</ele>
        <time>2024-07-30T13:15:07.713Z</time>
      </trkpt>
      <trkpt lat="50.61406" lon="2.69039">
        <ele>16.62172</ele>
        <time>2024-07-30T13:15:08.138Z</time>
      </trkpt>
      <trkpt lat="50.61377" lon="2.68995">
        <ele>16.679539</ele>
        <time>2024-07-30T13:15:16.623Z</time>
      </trkpt>
      <trkpt lat="50.61438" lon="2.68912">
        <ele>16.763913</ele>
        <time>2024-07-30T13:15:29.152Z</time>
      </trkpt>
      <trkpt lat="50.61561" lon="2.68738">
        <ele>16.799753</ele>
        <time>2024-07-30T13:15:53.820Z</time>
      </trkpt>
      <trkpt lat="50.61589" lon="2.68704">
        <ele>16.726885</ele>
        <time>2024-07-30T13:15:58.798Z</time>
      </trkpt>
      <trkpt lat="50.61611" lon="2.68681">
        <ele>16.672004</ele>
        <time>2024-07-30T13:16:02.541Z</time>
      </trkpt>
      <trkpt lat="50.61627" lon="2.68673">
        <ele>16.637441</ele>
        <time>2024-07-30T13:16:04.919Z</time>
      </trkpt>
      <trkpt lat="50.61605" lon="2.68577">
        <ele>16.50353</ele>
        <time>2024-07-30T13:16:13.839Z</time>
      </trkpt>
      <trkpt lat="50.61593" lon="2.68518">
        <ele>16.449485</ele>
        <time>2024-07-30T13:16:19.210Z</time>
      </trkpt>
      <trkpt lat="50.61582" lon="2.68467">
        <ele>16.425446</ele>
        <time>2024-07-30T13:16:24.045Z</time>
      </trkpt>
      <trkpt lat="50.6158" lon="2.68424">
        <ele>16.405709</ele>
        <time>2024-07-30T13:16:28.143Z</time>
      </trkpt>
      <trkpt lat="50.61583" lon="2.68397">
        <ele>16.393448</ele>
        <time>2024-07-30T13:16:30.677Z</time>
      </trkpt>
      <trkpt lat="50.61606" lon="2.68297">
        <ele>16.345925</ele>
        <time>2024-07-30T13:16:40.790Z</time>
      </trkpt>
      <trkpt lat="50.61617" lon="2.6826">
        <ele>16.330912</ele>
        <time>2024-07-30T13:16:44.652Z</time>
      </trkpt>
      <trkpt lat="50.61617" lon="2.68242">
        <ele>16.32593</ele>
        <time>2024-07-30T13:16:46.326Z</time>
      </trkpt>
      <trkpt lat="50.61612" lon="2.68209">
        <ele>16.316705</ele>
        <time>2024-07-30T13:16:49.431Z</time>
      </trkpt>
      <trkpt lat="50.61598" lon="2.6815">
        <ele>16.299349</ele>
        <time>2024-07-30T13:16:55.340Z</time>
      </trkpt>
      <trkpt lat="50.61579" lon="2.68079">
        <ele>16.278422</ele>
        <time>2024-07-30T13:17:02.595Z</time>
      </trkpt>
      <trkpt lat="50.61574" lon="2.6804">
        <ele>16.267497</ele>
        <time>2024-07-30T13:17:06.353Z</time>
      </trkpt>
      <trkpt lat="50.61561" lon="2.67929">
        <ele>16.267198</ele>
        <time>2024-07-30T13:17:16.588Z</time>
      </trkpt>
      <trkpt lat="50.61554" lon="2.67862">
        <ele>16.274109</ele>
        <time>2024-07-30T13:17:22.880Z</time>
      </trkpt>
      <trkpt lat="50.61537" lon="2.677">
        <ele>16.3096</ele>
        <time>2024-07-30T13:17:38.789Z</time>
      </trkpt>
      <trkpt lat="50.61519" lon="2.67592">
        <ele>16.389035</ele>
        <time>2024-07-30T13:17:49.697Z</time>
      </trkpt>
      <trkpt lat="50.61513" lon="2.67537">
        <ele>16.428999</ele>
        <time>2024-07-30T13:17:55.116Z</time>
      </trkpt>
      <trkpt lat="50.61508" lon="2.67436">
        <ele>16.488297</ele>
        <time>2024-07-30T13:18:04.860Z</time>
      </trkpt>
      <trkpt lat="50.61507" lon="2.67399">
        <ele>16.48412</ele>
        <time>2024-07-30T13:18:08.464Z</time>
      </trkpt>
      <trkpt lat="50.61497" lon="2.67267">
        <ele>16.469237</ele>
        <time>2024-07-30T13:18:20.972Z</time>
      </trkpt>
      <trkpt lat="50.61485" lon="2.67025">
        <ele>16.452409</ele>
        <time>2024-07-30T13:18:43.299Z</time>
      </trkpt>
      <trkpt lat="50.6145" lon="2.66734">
        <ele>16.480208</ele>
        <time>2024-07-30T13:19:11.633Z</time>
      </trkpt>
      <trkpt lat="50.6151" lon="2.66715">
        <ele>16.500518</ele>
        <time>2024-07-30T13:19:20.755Z</time>
      </trkpt>
      <trkpt lat="50.61569" lon="2.6669">
        <ele>16.513614</ele>
        <time>2024-07-30T13:19:29.820Z</time>
      </trkpt>
      <trkpt lat="50.6159" lon="2.66664">
        <ele>16.517958</ele>
        <time>2024-07-30T13:19:33.832Z</time>
      </trkpt>
      <trkpt lat="50.61601" lon="2.66645">
        <ele>16.520533</ele>
        <time>2024-07-30T13:19:36.255Z</time>
      </trkpt>
      <trkpt lat="50.61641" lon="2.66549">
        <ele>16.532316</ele>
        <time>2024-07-30T13:19:46.964Z</time>
      </trkpt>
      <trkpt lat="50.61656" lon="2.66522">
        <ele>16.537058</ele>
        <time>2024-07-30T13:19:50.308Z</time>
      </trkpt>
      <trkpt lat="50.61747" lon="2.66396">
        <ele>16.64189</ele>
        <time>2024-07-30T13:20:08.407Z</time>
      </trkpt>
      <trkpt lat="50.61766" lon="2.66384">
        <ele>16.659367</ele>
        <time>2024-07-30T13:20:11.577Z</time>
      </trkpt>
      <trkpt lat="50.61863" lon="2.66345">
        <ele>16.701337</ele>
        <time>2024-07-30T13:20:27.410Z</time>
      </trkpt>
      <trkpt lat="50.61866" lon="2.66381">
        <ele>16.704862</ele>
        <time>2024-07-30T13:20:30.917Z</time>
      </trkpt>
      <trkpt lat="50.61872" lon="2.66463">
        <ele>16.712823</ele>
        <time>2024-07-30T13:20:38.402Z</time>
      </trkpt>
      <trkpt lat="50.61887" lon="2.6654">
        <ele>16.681505</ele>
        <time>2024-07-30T13:20:45.719Z</time>
      </trkpt>
      <trkpt lat="50.61917" lon="2.66625">
        <ele>16.430898</ele>
        <time>2024-07-30T13:20:54.286Z</time>
      </trkpt>
      <trkpt lat="50.61937" lon="2.6666">
        <ele>16.311628</ele>
        <time>2024-07-30T13:20:58.110Z</time>
      </trkpt>
      <trkpt lat="50.61954" lon="2.66685">
        <ele>16.216693</ele>
        <time>2024-07-30T13:21:01.081Z</time>
      </trkpt>
      <trkpt lat="50.61973" lon="2.66701">
        <ele>16.130587</ele>
        <time>2024-07-30T13:21:03.826Z</time>
      </trkpt>
      <trkpt lat="50.62001" lon="2.66721">
        <ele>16.003701</ele>
        <time>2024-07-30T13:21:07.880Z</time>
      </trkpt>
      <trkpt lat="50.62048" lon="2.66738">
        <ele>15.943503</ele>
        <time>2024-07-30T13:21:14.721Z</time>
      </trkpt>
      <trkpt lat="50.62083" lon="2.66736">
        <ele>15.905756</ele>
        <time>2024-07-30T13:21:19.789Z</time>
      </trkpt>
      <trkpt lat="50.62102" lon="2.6673">
        <ele>15.884482</ele>
        <time>2024-07-30T13:21:22.612Z</time>
      </trkpt>
      <trkpt lat="50.62133" lon="2.66715">
        <ele>15.849811</ele>
        <time>2024-07-30T13:21:27.526Z</time>
      </trkpt>
      <trkpt lat="50.62138" lon="2.66714">
        <ele>15.844071</ele>
        <time>2024-07-30T13:21:28.218Z</time>
      </trkpt>
      <trkpt lat="50.6217" lon="2.66692">
        <ele>15.806437</ele>
        <time>2024-07-30T13:21:33.385Z</time>
      </trkpt>
      <trkpt lat="50.62183" lon="2.6669">
        <ele>15.80216</ele>
        <time>2024-07-30T13:21:35.434Z</time>
      </trkpt>
      <trkpt lat="50.62191" lon="2.66678">
        <ele>15.811992</ele>
        <time>2024-07-30T13:21:37.174Z</time>
      </trkpt>
      <trkpt lat="50.62235" lon="2.66668">
        <ele>15.850944</ele>
        <time>2024-07-30T13:21:44.063Z</time>
      </trkpt>
      <trkpt lat="50.62272" lon="2.66657">
        <ele>15.884623</ele>
        <time>2024-07-30T13:21:50.208Z</time>
      </trkpt>
      <trkpt lat="50.62455" lon="2.66571">
        <ele>15.9226</ele>
        <time>2024-07-30T13:22:17.973Z</time>
      </trkpt>
      <trkpt lat="50.62547" lon="2.66529">
        <ele>15.918017</ele>
        <time>2024-07-30T13:22:32.105Z</time>
      </trkpt>
      <trkpt lat="50.62623" lon="2.665">
        <ele>15.972822</ele>
        <time>2024-07-30T13:22:43.956Z</time>
      </trkpt>
      <trkpt lat="50.62742" lon="2.66467">
        <ele>16.095847</ele>
        <time>2024-07-30T13:23:02.614Z</time>
      </trkpt>
      <trkpt lat="50.62935" lon="2.66429">
        <ele>16.328577</ele>
        <time>2024-07-30T13:23:32.542Z</time>
      </trkpt>
      <trkpt lat="50.6297" lon="2.66432">
        <ele>16.34262</ele>
        <time>2024-07-30T13:23:37.863Z</time>
      </trkpt>
      <trkpt lat="50.6298" lon="2.66438">
        <ele>16.346928</ele>
        <time>2024-07-30T13:23:39.517Z</time>
      </trkpt>
      <trkpt lat="50.62989" lon="2.66451">
        <ele>16.351829</ele>
        <time>2024-07-30T13:23:41.322Z</time>
      </trkpt>
      <trkpt lat="50.63001" lon="2.66455">
        <ele>16.356491</ele>
        <time>2024-07-30T13:23:43.048Z</time>
      </trkpt>
      <trkpt lat="50.63012" lon="2.66451">
        <ele>16.36112</ele>
        <time>2024-07-30T13:23:44.787Z</time>
      </trkpt>
      <trkpt lat="50.63018" lon="2.66446">
        <ele>16.363694</ele>
        <time>2024-07-30T13:23:45.738Z</time>
      </trkpt>
      <trkpt lat="50.63025" lon="2.66429">
        <ele>16.368835</ele>
        <time>2024-07-30T13:23:47.612Z</time>
      </trkpt>
      <trkpt lat="50.63034" lon="2.6642">
        <ele>16.373083</ele>
        <time>2024-07-30T13:23:49.168Z</time>
      </trkpt>
      <trkpt lat="50.63061" lon="2.66403">
        <ele>16.35011</ele>
        <time>2024-07-30T13:23:53.298Z</time>
      </trkpt>
      <trkpt lat="50.63181" lon="2.66382">
        <ele>16.181319</ele>
        <time>2024-07-30T13:24:10.427Z</time>
      </trkpt>
      <trkpt lat="50.63203" lon="2.66372">
        <ele>16.149201</ele>
        <time>2024-07-30T13:24:13.657Z</time>
      </trkpt>
      <trkpt lat="50.63229" lon="2.66354">
        <ele>16.127571</ele>
        <time>2024-07-30T13:24:17.818Z</time>
      </trkpt>
      <trkpt lat="50.63245" lon="2.66339">
        <ele>16.131311</ele>
        <time>2024-07-30T13:24:20.374Z</time>
      </trkpt>
      <trkpt lat="50.63271" lon="2.66306">
        <ele>16.1385</ele>
        <time>2024-07-30T13:24:25.334Z</time>
      </trkpt>
      <trkpt lat="50.63303" lon="2.66242">
        <ele>16.149491</ele>
        <time>2024-07-30T13:24:33.078Z</time>
      </trkpt>
      <trkpt lat="50.63353" lon="2.661">
        <ele>16.206054</ele>
        <time>2024-07-30T13:24:48.796Z</time>
      </trkpt>
      <trkpt lat="50.6343" lon="2.65873">
        <ele>16.383471</ele>
        <time>2024-07-30T13:25:13.858Z</time>
      </trkpt>
      <trkpt lat="50.63577" lon="2.65472">
        <ele>16.571563</ele>
        <time>2024-07-30T13:25:58.147Z</time>
      </trkpt>
      <trkpt lat="50.63593" lon="2.65423">
        <ele>16.588021</ele>
        <time>2024-07-30T13:26:03.424Z</time>
      </trkpt>
      <trkpt lat="50.63609" lon="2.65348">
        <ele>16.560503</ele>
        <time>2024-07-30T13:26:10.823Z</time>
      </trkpt>
      <trkpt lat="50.63622" lon="2.65304">
        <ele>16.536343</ele>
        <time>2024-07-30T13:26:15.345Z</time>
      </trkpt>
      <trkpt lat="50.63631" lon="2.65267">
        <ele>16.516997</ele>
        <time>2024-07-30T13:26:18.935Z</time>
      </trkpt>
      <trkpt lat="50.63641" lon="2.65177">
        <ele>16.47171</ele>
        <time>2024-07-30T13:26:27.361Z</time>
      </trkpt>
      <trkpt lat="50.63648" lon="2.65135">
        <ele>16.451117</ele>
        <time>2024-07-30T13:26:31.267Z</time>
      </trkpt>
      <trkpt lat="50.63659" lon="2.65098">
        <ele>16.440277</ele>
        <time>2024-07-30T13:26:35.041Z</time>
      </trkpt>
      <trkpt lat="50.63677" lon="2.65052">
        <ele>16.426322</ele>
        <time>2024-07-30T13:26:39.925Z</time>
      </trkpt>
      <trkpt lat="50.63689" lon="2.65009">
        <ele>16.414017</ele>
        <time>2024-07-30T13:26:44.251Z</time>
      </trkpt>
      <trkpt lat="50.63699" lon="2.64933">
        <ele>16.393964</ele>
        <time>2024-07-30T13:26:51.459Z</time>
      </trkpt>
      <trkpt lat="50.63702" lon="2.64865">
        <ele>16.38294</ele>
        <time>2024-07-30T13:26:58.044Z</time>
      </trkpt>
      <trkpt lat="50.63736" lon="2.64702">
        <ele>16.49809</ele>
        <time>2024-07-30T13:27:14.702Z</time>
      </trkpt>
      <trkpt lat="50.63739" lon="2.6468">
        <ele>16.513337</ele>
        <time>2024-07-30T13:27:16.913Z</time>
      </trkpt>
      <trkpt lat="50.63739" lon="2.64656">
        <ele>16.529429</ele>
        <time>2024-07-30T13:27:19.264Z</time>
      </trkpt>
      <trkpt lat="50.63725" lon="2.64455">
        <ele>16.675775</ele>
        <time>2024-07-30T13:27:38.766Z</time>
      </trkpt>
      <trkpt lat="50.63712" lon="2.64279">
        <ele>16.79463</ele>
        <time>2024-07-30T13:27:55.962Z</time>
      </trkpt>
      <trkpt lat="50.637" lon="2.64122">
        <ele>16.856069</ele>
        <time>2024-07-30T13:28:11.150Z</time>
      </trkpt>
      <trkpt lat="50.63737" lon="2.64112">
        <ele>16.879099</ele>
        <time>2024-07-30T13:28:16.924Z</time>
      </trkpt>
      <trkpt lat="50.63792" lon="2.64098">
        <ele>16.85979</ele>
        <time>2024-07-30T13:28:25.037Z</time>
      </trkpt>
      <trkpt lat="50.63806" lon="2.64095">
        <ele>16.848936</ele>
        <time>2024-07-30T13:28:27.031Z</time>
      </trkpt>
      <trkpt lat="50.63811" lon="2.64093">
        <ele>16.84483</ele>
        <time>2024-07-30T13:28:27.787Z</time>
      </trkpt>
      <trkpt lat="50.639" lon="2.64068">
        <ele>16.773053</ele>
        <time>2024-07-30T13:28:40.590Z</time>
      </trkpt>
      <trkpt lat="50.63904" lon="2.64082">
        <ele>16.765272</ele>
        <time>2024-07-30T13:28:41.971Z</time>
      </trkpt>
      <trkpt lat="50.63912" lon="2.64091">
        <ele>16.75746</ele>
        <time>2024-07-30T13:28:43.438Z</time>
      </trkpt>
      <trkpt lat="50.63922" lon="2.64094">
        <ele>16.749709</ele>
        <time>2024-07-30T13:28:44.935Z</time>
      </trkpt>
      <trkpt lat="50.63931" lon="2.64097">
        <ele>16.751675</ele>
        <time>2024-07-30T13:28:46.268Z</time>
      </trkpt>
      <trkpt lat="50.63946" lon="2.64098">
        <ele>16.76264</ele>
        <time>2024-07-30T13:28:48.684Z</time>
      </trkpt>
      <trkpt lat="50.63959" lon="2.64082">
        <ele>16.773837</ele>
        <time>2024-07-30T13:28:51.187Z</time>
      </trkpt>
      <trkpt lat="50.63964" lon="2.64064">
        <ele>16.782797</ele>
        <time>2024-07-30T13:28:53.048Z</time>
      </trkpt>
      <trkpt lat="50.63973" lon="2.64054">
        <ele>16.790104</ele>
        <time>2024-07-30T13:28:54.660Z</time>
      </trkpt>
      <trkpt lat="50.63981" lon="2.64046">
        <ele>16.796709</ele>
        <time>2024-07-30T13:28:56.110Z</time>
      </trkpt>
      <trkpt lat="50.64001" lon="2.64041">
        <ele>16.811408</ele>
        <time>2024-07-30T13:28:59.198Z</time>
      </trkpt>
      <trkpt lat="50.64078" lon="2.6402">
        <ele>16.866012</ele>
        <time>2024-07-30T13:29:10.806Z</time>
      </trkpt>
      <trkpt lat="50.64191" lon="2.63991">
        <ele>17.052672</ele>
        <time>2024-07-30T13:29:29.118Z</time>
      </trkpt>
      <trkpt lat="50.64199" lon="2.63987">
        <ele>17.065526</ele>
        <time>2024-07-30T13:29:30.282Z</time>
      </trkpt>
      <trkpt lat="50.64213" lon="2.63981">
        <ele>17.090862</ele>
        <time>2024-07-30T13:29:32.533Z</time>
      </trkpt>
      <trkpt lat="50.64256" lon="2.63958">
        <ele>17.169915</ele>
        <time>2024-07-30T13:29:39.601Z</time>
      </trkpt>
      <trkpt lat="50.64228" lon="2.63899">
        <ele>17.160818</ele>
        <time>2024-07-30T13:29:46.868Z</time>
      </trkpt>
      <trkpt lat="50.64211" lon="2.63863">
        <ele>17.14551</ele>
        <time>2024-07-30T13:29:51.088Z</time>
      </trkpt>
      <trkpt lat="50.6418" lon="2.638">
        <ele>17.118231</ele>
        <time>2024-07-30T13:29:58.421Z</time>
      </trkpt>
      <trkpt lat="50.64103" lon="2.63716">
        <ele>17.033227</ele>
        <time>2024-07-30T13:30:11.536Z</time>
      </trkpt>
      <trkpt lat="50.64078" lon="2.63673">
        <ele>16.975715</ele>
        <time>2024-07-30T13:30:16.832Z</time>
      </trkpt>
      <trkpt lat="50.64059" lon="2.63634">
        <ele>16.926798</ele>
        <time>2024-07-30T13:30:21.227Z</time>
      </trkpt>
      <trkpt lat="50.64057" lon="2.63627">
        <ele>16.918629</ele>
        <time>2024-07-30T13:30:21.976Z</time>
      </trkpt>
      <trkpt lat="50.64055" lon="2.63624">
        <ele>16.914504</ele>
        <time>2024-07-30T13:30:22.347Z</time>
      </trkpt>
      <trkpt lat="50.6405" lon="2.63613">
        <ele>16.901427</ele>
        <time>2024-07-30T13:30:23.540Z</time>
      </trkpt>
      <trkpt lat="50.64048" lon="2.63606">
        <ele>16.89298</ele>
        <time>2024-07-30T13:30:24.297Z</time>
      </trkpt>
      <trkpt lat="50.64046" lon="2.63591">
        <ele>16.878446</ele>
        <time>2024-07-30T13:30:25.584Z</time>
      </trkpt>
      <trkpt lat="50.64046" lon="2.63523">
        <ele>16.810251</ele>
        <time>2024-07-30T13:30:31.744Z</time>
      </trkpt>
      <trkpt lat="50.64046" lon="2.63492">
        <ele>16.799353</ele>
        <time>2024-07-30T13:30:34.610Z</time>
      </trkpt>
      <trkpt lat="50.64034" lon="2.63364">
        <ele>16.784427</ele>
        <time>2024-07-30T13:30:46.692Z</time>
      </trkpt>
      <trkpt lat="50.64024" lon="2.63221">
        <ele>16.763193</ele>
        <time>2024-07-30T13:31:00.409Z</time>
      </trkpt>
      <trkpt lat="50.64025" lon="2.63171">
        <ele>16.73893</ele>
        <time>2024-07-30T13:31:05.123Z</time>
      </trkpt>
      <trkpt lat="50.6403" lon="2.63168">
        <ele>16.734802</ele>
        <time>2024-07-30T13:31:05.958Z</time>
      </trkpt>
      <trkpt lat="50.64033" lon="2.6316">
        <ele>16.730625</ele>
        <time>2024-07-30T13:31:06.753Z</time>
      </trkpt>
      <trkpt lat="50.64031" lon="2.63151">
        <ele>16.726136</ele>
        <time>2024-07-30T13:31:07.578Z</time>
      </trkpt>
      <trkpt lat="50.64026" lon="2.63148">
        <ele>16.721634</ele>
        <time>2024-07-30T13:31:08.422Z</time>
      </trkpt>
      <trkpt lat="50.64031" lon="2.62992">
        <ele>16.646423</ele>
        <time>2024-07-30T13:31:22.658Z</time>
      </trkpt>
      <trkpt lat="50.64043" lon="2.62946">
        <ele>16.608394</ele>
        <time>2024-07-30T13:31:27.141Z</time>
      </trkpt>
      <trkpt lat="50.64069" lon="2.62875">
        <ele>16.510365</ele>
        <time>2024-07-30T13:31:34.630Z</time>
      </trkpt>
      <trkpt lat="50.64112" lon="2.62756">
        <ele>16.348397</ele>
        <time>2024-07-30T13:31:46.844Z</time>
      </trkpt>
      <trkpt lat="50.64128" lon="2.62736">
        <ele>16.309157</ele>
        <time>2024-07-30T13:31:49.741Z</time>
      </trkpt>
      <trkpt lat="50.64139" lon="2.62713">
        <ele>16.283605</ele>
        <time>2024-07-30T13:31:52.257Z</time>
      </trkpt>
      <trkpt lat="50.6414" lon="2.62697">
        <ele>16.272495</ele>
        <time>2024-07-30T13:31:53.704Z</time>
      </trkpt>
      <trkpt lat="50.64107" lon="2.62576">
        <ele>16.182009</ele>
        <time>2024-07-30T13:32:05.701Z</time>
      </trkpt>
      <trkpt lat="50.64097" lon="2.62522">
        <ele>16.144055</ele>
        <time>2024-07-30T13:32:10.783Z</time>
      </trkpt>
      <trkpt lat="50.64092" lon="2.62414">
        <ele>16.114167</ele>
        <time>2024-07-30T13:32:20.863Z</time>
      </trkpt>
      <trkpt lat="50.64079" lon="2.62358">
        <ele>16.132251</ele>
        <time>2024-07-30T13:32:26.618Z</time>
      </trkpt>
      <trkpt lat="50.64069" lon="2.62318">
        <ele>16.145103</ele>
        <time>2024-07-30T13:32:30.759Z</time>
      </trkpt>
      <trkpt lat="50.64045" lon="2.62235">
        <ele>16.17217</ele>
        <time>2024-07-30T13:32:39.584Z</time>
      </trkpt>
      <trkpt lat="50.64027" lon="2.62174">
        <ele>16.189896</ele>
        <time>2024-07-30T13:32:46.089Z</time>
      </trkpt>
      <trkpt lat="50.64022" lon="2.62142">
        <ele>16.1961</ele>
        <time>2024-07-30T13:32:49.208Z</time>
      </trkpt>
      <trkpt lat="50.64019" lon="2.62107">
        <ele>16.202851</ele>
        <time>2024-07-30T13:32:52.520Z</time>
      </trkpt>
      <trkpt lat="50.64016" lon="2.6199">
        <ele>16.22505</ele>
        <time>2024-07-30T13:33:03.700Z</time>
      </trkpt>
      <trkpt lat="50.64012" lon="2.61863">
        <ele>16.246715</ele>
        <time>2024-07-30T13:33:15.534Z</time>
      </trkpt>
      <trkpt lat="50.64011" lon="2.61805">
        <ele>16.254899</ele>
        <time>2024-07-30T13:33:20.873Z</time>
      </trkpt>
      <trkpt lat="50.64002" lon="2.61725">
        <ele>16.266413</ele>
        <time>2024-07-30T13:33:28.454Z</time>
      </trkpt>
      <trkpt lat="50.63998" lon="2.61695">
        <ele>16.270815</ele>
        <time>2024-07-30T13:33:31.438Z</time>
      </trkpt>
      <trkpt lat="50.63995" lon="2.61675">
        <ele>16.273708</ele>
        <time>2024-07-30T13:33:33.347Z</time>
      </trkpt>
      <trkpt lat="50.63944" lon="2.61313">
        <ele>16.609704</ele>
        <time>2024-07-30T13:34:10.025Z</time>
      </trkpt>
      <trkpt lat="50.63942" lon="2.61197">
        <ele>16.593588</ele>
        <time>2024-07-30T13:34:21.204Z</time>
      </trkpt>
      <trkpt lat="50.63938" lon="2.61118">
        <ele>16.582579</ele>
        <time>2024-07-30T13:34:28.551Z</time>
      </trkpt>
      <trkpt lat="50.639" lon="2.60883">
        <ele>16.116454</ele>
        <time>2024-07-30T13:34:49.474Z</time>
      </trkpt>
      <trkpt lat="50.63892" lon="2.6081">
        <ele>15.945604</ele>
        <time>2024-07-30T13:34:55.743Z</time>
      </trkpt>
      <trkpt lat="50.63888" lon="2.60717">
        <ele>15.797317</ele>
        <time>2024-07-30T13:35:03.719Z</time>
      </trkpt>
      <trkpt lat="50.63888" lon="2.6064">
        <ele>15.680034</ele>
        <time>2024-07-30T13:35:10.419Z</time>
      </trkpt>
      <trkpt lat="50.63891" lon="2.60603">
        <ele>15.623915</ele>
        <time>2024-07-30T13:35:13.732Z</time>
      </trkpt>
      <trkpt lat="50.63901" lon="2.60553">
        <ele>15.544575</ele>
        <time>2024-07-30T13:35:18.567Z</time>
      </trkpt>
      <trkpt lat="50.63905" lon="2.60513">
        <ele>15.505083</ele>
        <time>2024-07-30T13:35:22.449Z</time>
      </trkpt>
      <trkpt lat="50.63899" lon="2.60427">
        <ele>15.616847</ele>
        <time>2024-07-30T13:35:30.918Z</time>
      </trkpt>
      <trkpt lat="50.63891" lon="2.60347">
        <ele>15.721001</ele>
        <time>2024-07-30T13:35:39.184Z</time>
      </trkpt>
      <trkpt lat="50.63885" lon="2.60151">
        <ele>15.93247</ele>
        <time>2024-07-30T13:35:58.916Z</time>
      </trkpt>
      <trkpt lat="50.63878" lon="2.60033">
        <ele>16.029735</ele>
        <time>2024-07-30T13:36:10.428Z</time>
      </trkpt>
      <trkpt lat="50.63879" lon="2.59983">
        <ele>16.071025</ele>
        <time>2024-07-30T13:36:15.195Z</time>
      </trkpt>
      <trkpt lat="50.63884" lon="2.5995">
        <ele>16.093199</ele>
        <time>2024-07-30T13:36:18.461Z</time>
      </trkpt>
      <trkpt lat="50.63919" lon="2.59853">
        <ele>16.083115</ele>
        <time>2024-07-30T13:36:28.865Z</time>
      </trkpt>
      <trkpt lat="50.63922" lon="2.59844">
        <ele>16.082242</ele>
        <time>2024-07-30T13:36:29.767Z</time>
      </trkpt>
      <trkpt lat="50.63928" lon="2.59826">
        <ele>16.08032</ele>
        <time>2024-07-30T13:36:31.754Z</time>
      </trkpt>
      <trkpt lat="50.64032" lon="2.59437">
        <ele>16.008082</ele>
        <time>2024-07-30T13:37:11.066Z</time>
      </trkpt>
      <trkpt lat="50.64039" lon="2.59403">
        <ele>16.001183</ele>
        <time>2024-07-30T13:37:14.388Z</time>
      </trkpt>
      <trkpt lat="50.6405" lon="2.59312">
        <ele>15.9832</ele>
        <time>2024-07-30T13:37:23.152Z</time>
      </trkpt>
      <trkpt lat="50.64056" lon="2.59228">
        <ele>15.966631</ele>
        <time>2024-07-30T13:37:31.108Z</time>
      </trkpt>
      <trkpt lat="50.641" lon="2.5909">
        <ele>15.826752</ele>
        <time>2024-07-30T13:37:45.160Z</time>
      </trkpt>
      <trkpt lat="50.64112" lon="2.59043">
        <ele>15.752477</ele>
        <time>2024-07-30T13:37:49.810Z</time>
      </trkpt>
      <trkpt lat="50.64114" lon="2.59012">
        <ele>15.707597</ele>
        <time>2024-07-30T13:37:52.624Z</time>
      </trkpt>
      <trkpt lat="50.64106" lon="2.58917">
        <ele>15.569343</ele>
        <time>2024-07-30T13:38:00.826Z</time>
      </trkpt>
      <trkpt lat="50.64092" lon="2.5879">
        <ele>15.359473</ele>
        <time>2024-07-30T13:38:11.730Z</time>
      </trkpt>
      <trkpt lat="50.6408" lon="2.58718">
        <ele>15.235708</ele>
        <time>2024-07-30T13:38:18.170Z</time>
      </trkpt>
      <trkpt lat="50.64067" lon="2.58666">
        <ele>15.142836</ele>
        <time>2024-07-30T13:38:23.194Z</time>
      </trkpt>
      <trkpt lat="50.64053" lon="2.58617">
        <ele>15.093448</ele>
        <time>2024-07-30T13:38:28.152Z</time>
      </trkpt>
      <trkpt lat="50.64041" lon="2.58479">
        <ele>15.355184</ele>
        <time>2024-07-30T13:38:42.068Z</time>
      </trkpt>
      <trkpt lat="50.6403" lon="2.58422">
        <ele>15.465936</ele>
        <time>2024-07-30T13:38:48.355Z</time>
      </trkpt>
      <trkpt lat="50.64" lon="2.58301">
        <ele>15.689011</ele>
        <time>2024-07-30T13:39:02.188Z</time>
      </trkpt>
      <trkpt lat="50.63954" lon="2.58114">
        <ele>15.989202</ele>
        <time>2024-07-30T13:39:22.419Z</time>
      </trkpt>
      <trkpt lat="50.63911" lon="2.57995">
        <ele>16.052071</ele>
        <time>2024-07-30T13:39:35.067Z</time>
      </trkpt>
      <trkpt lat="50.63899" lon="2.57957">
        <ele>16.060691</ele>
        <time>2024-07-30T13:39:39.111Z</time>
      </trkpt>
      <trkpt lat="50.63891" lon="2.57904">
        <ele>16.0717</ele>
        <time>2024-07-30T13:39:44.277Z</time>
      </trkpt>
      <trkpt lat="50.63885" lon="2.57868">
        <ele>16.079184</ele>
        <time>2024-07-30T13:39:47.783Z</time>
      </trkpt>
      <trkpt lat="50.63882" lon="2.57834">
        <ele>16.086039</ele>
        <time>2024-07-30T13:39:50.996Z</time>
      </trkpt>
      <trkpt lat="50.63881" lon="2.57715">
        <ele>16.119768</ele>
        <time>2024-07-30T13:40:02.295Z</time>
      </trkpt>
      <trkpt lat="50.63884" lon="2.5747">
        <ele>16.193218</ele>
        <time>2024-07-30T13:40:25.583Z</time>
      </trkpt>
      <trkpt lat="50.63941" lon="2.56839">
        <ele>16.436731</ele>
        <time>2024-07-30T13:41:26.458Z</time>
      </trkpt>
      <trkpt lat="50.6396" lon="2.56715">
        <ele>16.509363</ele>
        <time>2024-07-30T13:41:38.958Z</time>
      </trkpt>
      <trkpt lat="50.63965" lon="2.56648">
        <ele>16.522349</ele>
        <time>2024-07-30T13:41:45.481Z</time>
      </trkpt>
      <trkpt lat="50.63993" lon="2.56192">
        <ele>16.557732</ele>
        <time>2024-07-30T13:42:28.427Z</time>
      </trkpt>
      <trkpt lat="50.63994" lon="2.56123">
        <ele>16.561694</ele>
        <time>2024-07-30T13:42:35.071Z</time>
      </trkpt>
      <trkpt lat="50.63994" lon="2.56103">
        <ele>16.564588</ele>
        <time>2024-07-30T13:42:37.057Z</time>
      </trkpt>
      <trkpt lat="50.63992" lon="2.56059">
        <ele>16.570667</ele>
        <time>2024-07-30T13:42:41.208Z</time>
      </trkpt>
      <trkpt lat="50.63972" lon="2.55877">
        <ele>16.596666</ele>
        <time>2024-07-30T13:42:58.790Z</time>
      </trkpt>
      <trkpt lat="50.63968" lon="2.55814">
        <ele>16.579859</ele>
        <time>2024-07-30T13:43:04.771Z</time>
      </trkpt>
      <trkpt lat="50.63969" lon="2.55743">
        <ele>16.549616</ele>
        <time>2024-07-30T13:43:11.369Z</time>
      </trkpt>
      <trkpt lat="50.63991" lon="2.55473">
        <ele>16.449804</ele>
        <time>2024-07-30T13:43:36.167Z</time>
      </trkpt>
      <trkpt lat="50.64053" lon="2.55203">
        <ele>16.462583</ele>
        <time>2024-07-30T13:44:03.056Z</time>
      </trkpt>
      <trkpt lat="50.64063" lon="2.55164">
        <ele>16.486533</ele>
        <time>2024-07-30T13:44:07.080Z</time>
      </trkpt>
      <trkpt lat="50.64078" lon="2.55137">
        <ele>16.507249</ele>
        <time>2024-07-30T13:44:10.597Z</time>
      </trkpt>
      <trkpt lat="50.64126" lon="2.55068">
        <ele>16.566724</ele>
        <time>2024-07-30T13:44:20.641Z</time>
      </trkpt>
      <trkpt lat="50.64226" lon="2.5492">
        <ele>16.734186</ele>
        <time>2024-07-30T13:44:41.838Z</time>
      </trkpt>
      <trkpt lat="50.6425" lon="2.54878">
        <ele>16.77788</ele>
        <time>2024-07-30T13:44:47.261Z</time>
      </trkpt>
      <trkpt lat="50.6428" lon="2.54814">
        <ele>16.726147</ele>
        <time>2024-07-30T13:44:54.862Z</time>
      </trkpt>
      <trkpt lat="50.64357" lon="2.54638">
        <ele>16.559199</ele>
        <time>2024-07-30T13:45:14.200Z</time>
      </trkpt>
      <trkpt lat="50.64389" lon="2.54598">
        <ele>16.417921</ele>
        <time>2024-07-30T13:45:19.709Z</time>
      </trkpt>
      <trkpt lat="50.64418" lon="2.54553">
        <ele>16.277771</ele>
        <time>2024-07-30T13:45:25.105Z</time>
      </trkpt>
      <trkpt lat="50.64471" lon="2.54461">
        <ele>16.004162</ele>
        <time>2024-07-30T13:45:35.624Z</time>
      </trkpt>
      <trkpt lat="50.64551" lon="2.54345">
        <ele>15.995508</ele>
        <time>2024-07-30T13:45:51.420Z</time>
      </trkpt>
      <trkpt lat="50.64594" lon="2.54277">
        <ele>16.027999</ele>
        <time>2024-07-30T13:46:00.938Z</time>
      </trkpt>
      <trkpt lat="50.64621" lon="2.54231">
        <ele>16.079493</ele>
        <time>2024-07-30T13:46:07.402Z</time>
      </trkpt>
      <trkpt lat="50.64628" lon="2.54212">
        <ele>16.121335</ele>
        <time>2024-07-30T13:46:09.691Z</time>
      </trkpt>
      <trkpt lat="50.64632" lon="2.54187">
        <ele>16.16951</ele>
        <time>2024-07-30T13:46:12.475Z</time>
      </trkpt>
      <trkpt lat="50.64645" lon="2.54102">
        <ele>16.329875</ele>
        <time>2024-07-30T13:46:21.507Z</time>
      </trkpt>
      <trkpt lat="50.64707" lon="2.53898">
        <ele>16.687918</ele>
        <time>2024-07-30T13:46:44.039Z</time>
      </trkpt>
      <trkpt lat="50.64709" lon="2.53888">
        <ele>16.700622</ele>
        <time>2024-07-30T13:46:45.089Z</time>
      </trkpt>
      <trkpt lat="50.64722" lon="2.53817">
        <ele>16.791097</ele>
        <time>2024-07-30T13:46:52.392Z</time>
      </trkpt>
      <trkpt lat="50.64755" lon="2.53678">
        <ele>16.915594</ele>
        <time>2024-07-30T13:47:06.947Z</time>
      </trkpt>
      <trkpt lat="50.64758" lon="2.5364">
        <ele>16.915977</ele>
        <time>2024-07-30T13:47:10.604Z</time>
      </trkpt>
      <trkpt lat="50.64756" lon="2.53624">
        <ele>16.916145</ele>
        <time>2024-07-30T13:47:12.159Z</time>
      </trkpt>
      <trkpt lat="50.6473" lon="2.53528">
        <ele>16.917217</ele>
        <time>2024-07-30T13:47:21.897Z</time>
      </trkpt>
      <trkpt lat="50.64706" lon="2.53445">
        <ele>16.906612</ele>
        <time>2024-07-30T13:47:30.288Z</time>
      </trkpt>
      <trkpt lat="50.64613" lon="2.53206">
        <ele>16.666407</ele>
        <time>2024-07-30T13:47:55.736Z</time>
      </trkpt>
      <trkpt lat="50.64591" lon="2.53157">
        <ele>16.595867</ele>
        <time>2024-07-30T13:48:01.066Z</time>
      </trkpt>
      <trkpt lat="50.64576" lon="2.531">
        <ele>16.52179</ele>
        <time>2024-07-30T13:48:06.668Z</time>
      </trkpt>
      <trkpt lat="50.64535" lon="2.52907">
        <ele>16.302197</ele>
        <time>2024-07-30T13:48:24.894Z</time>
      </trkpt>
      <trkpt lat="50.6452" lon="2.52857">
        <ele>16.260549</ele>
        <time>2024-07-30T13:48:29.794Z</time>
      </trkpt>
      <trkpt lat="50.64439" lon="2.52695">
        <ele>16.129989</ele>
        <time>2024-07-30T13:48:48.742Z</time>
      </trkpt>
      <trkpt lat="50.64427" lon="2.52668">
        <ele>16.135178</ele>
        <time>2024-07-30T13:48:51.798Z</time>
      </trkpt>
      <trkpt lat="50.64416" lon="2.5263">
        <ele>16.141897</ele>
        <time>2024-07-30T13:48:55.815Z</time>
      </trkpt>
      <trkpt lat="50.64405" lon="2.52568">
        <ele>16.152073</ele>
        <time>2024-07-30T13:49:01.999Z</time>
      </trkpt>
      <trkpt lat="50.64384" lon="2.52422">
        <ele>16.206075</ele>
        <time>2024-07-30T13:49:16.353Z</time>
      </trkpt>
      <trkpt lat="50.64372" lon="2.52372">
        <ele>16.259337</ele>
        <time>2024-07-30T13:49:21.450Z</time>
      </trkpt>
      <trkpt lat="50.64349" lon="2.52304">
        <ele>16.33636</ele>
        <time>2024-07-30T13:49:29.025Z</time>
      </trkpt>
      <trkpt lat="50.64315" lon="2.52185">
        <ele>16.461748</ele>
        <time>2024-07-30T13:49:42.045Z</time>
      </trkpt>
      <trkpt lat="50.64277" lon="2.52037">
        <ele>16.558137</ele>
        <time>2024-07-30T13:49:57.621Z</time>
      </trkpt>
      <trkpt lat="50.64157" lon="2.51651">
        <ele>16.646079</ele>
        <time>2024-07-30T13:50:38.318Z</time>
      </trkpt>
      <trkpt lat="50.64141" lon="2.51599">
        <ele>16.623867</ele>
        <time>2024-07-30T13:50:43.536Z</time>
      </trkpt>
      <trkpt lat="50.64121" lon="2.51514">
        <ele>16.588566</ele>
        <time>2024-07-30T13:50:51.810Z</time>
      </trkpt>
      <trkpt lat="50.64111" lon="2.51315">
        <ele>16.545233</ele>
        <time>2024-07-30T13:51:10.129Z</time>
      </trkpt>
      <trkpt lat="50.64123" lon="2.51091">
        <ele>16.600536</ele>
        <time>2024-07-30T13:51:31.434Z</time>
      </trkpt>
      <trkpt lat="50.64128" lon="2.5104">
        <ele>16.682352</ele>
        <time>2024-07-30T13:51:36.644Z</time>
      </trkpt>
      <trkpt lat="50.64133" lon="2.50998">
        <ele>16.750347</ele>
        <time>2024-07-30T13:51:41.009Z</time>
      </trkpt>
      <trkpt lat="50.64148" lon="2.5092">
        <ele>16.879201</ele>
        <time>2024-07-30T13:51:49.396Z</time>
      </trkpt>
      <trkpt lat="50.64166" lon="2.5082">
        <ele>17.032811</ele>
        <time>2024-07-30T13:52:00.078Z</time>
      </trkpt>
      <trkpt lat="50.64173" lon="2.50759">
        <ele>17.111431</ele>
        <time>2024-07-30T13:52:06.343Z</time>
      </trkpt>
      <trkpt lat="50.64174" lon="2.50697">
        <ele>17.191188</ele>
        <time>2024-07-30T13:52:12.665Z</time>
      </trkpt>
      <trkpt lat="50.6417" lon="2.50661">
        <ele>17.238812</ele>
        <time>2024-07-30T13:52:16.391Z</time>
      </trkpt>
      <trkpt lat="50.64163" lon="2.50631">
        <ele>17.280232</ele>
        <time>2024-07-30T13:52:19.536Z</time>
      </trkpt>
      <trkpt lat="50.64097" lon="2.50477">
        <ele>17.273498</ele>
        <time>2024-07-30T13:52:36.633Z</time>
      </trkpt>
      <trkpt lat="50.6404" lon="2.50334">
        <ele>17.172809</ele>
        <time>2024-07-30T13:52:51.917Z</time>
      </trkpt>
      <trkpt lat="50.64" lon="2.50213">
        <ele>17.0659</ele>
        <time>2024-07-30T13:53:04.168Z</time>
      </trkpt>
      <trkpt lat="50.63976" lon="2.50129">
        <ele>16.993858</ele>
        <time>2024-07-30T13:53:12.697Z</time>
      </trkpt>
      <trkpt lat="50.63944" lon="2.49984">
        <ele>16.937935</ele>
        <time>2024-07-30T13:53:27.038Z</time>
      </trkpt>
      <trkpt lat="50.63936" lon="2.49945">
        <ele>16.928572</ele>
        <time>2024-07-30T13:53:30.894Z</time>
      </trkpt>
      <trkpt lat="50.63924" lon="2.49829">
        <ele>16.902217</ele>
        <time>2024-07-30T13:53:41.821Z</time>
      </trkpt>
      <trkpt lat="50.63899" lon="2.49525">
        <ele>16.898269</ele>
        <time>2024-07-30T13:54:10.612Z</time>
      </trkpt>
      <trkpt lat="50.63885" lon="2.49421">
        <ele>16.884814</ele>
        <time>2024-07-30T13:54:20.525Z</time>
      </trkpt>
      <trkpt lat="50.63866" lon="2.49305">
        <ele>16.869598</ele>
        <time>2024-07-30T13:54:31.673Z</time>
      </trkpt>
      <trkpt lat="50.63849" lon="2.49241">
        <ele>16.873818</ele>
        <time>2024-07-30T13:54:38.139Z</time>
      </trkpt>
      <trkpt lat="50.6382" lon="2.49111">
        <ele>16.927512</ele>
        <time>2024-07-30T13:54:51.304Z</time>
      </trkpt>
      <trkpt lat="50.63806" lon="2.49058">
        <ele>16.949566</ele>
        <time>2024-07-30T13:54:56.740Z</time>
      </trkpt>
      <trkpt lat="50.638" lon="2.49018">
        <ele>16.965669</ele>
        <time>2024-07-30T13:55:00.744Z</time>
      </trkpt>
      <trkpt lat="50.638" lon="2.48988">
        <ele>16.985468</ele>
        <time>2024-07-30T13:55:03.601Z</time>
      </trkpt>
      <trkpt lat="50.63806" lon="2.48941">
        <ele>17.05573</ele>
        <time>2024-07-30T13:55:08.355Z</time>
      </trkpt>
      <trkpt lat="50.63816" lon="2.48886">
        <ele>17.140032</ele>
        <time>2024-07-30T13:55:14.110Z</time>
      </trkpt>
      <trkpt lat="50.63831" lon="2.48825">
        <ele>17.235804</ele>
        <time>2024-07-30T13:55:20.692Z</time>
      </trkpt>
      <trkpt lat="50.63858" lon="2.48727">
        <ele>17.390726</ele>
        <time>2024-07-30T13:55:31.420Z</time>
      </trkpt>
      <trkpt lat="50.63881" lon="2.4868">
        <ele>17.482043</ele>
        <time>2024-07-30T13:55:37.520Z</time>
      </trkpt>
      <trkpt lat="50.63994" lon="2.48482">
        <ele>17.842772</ele>
        <time>2024-07-30T13:56:04.254Z</time>
      </trkpt>
      <trkpt lat="50.64065" lon="2.48376">
        <ele>17.925051</ele>
        <time>2024-07-30T13:56:19.021Z</time>
      </trkpt>
      <trkpt lat="50.64096" lon="2.4832">
        <ele>17.964841</ele>
        <time>2024-07-30T13:56:25.988Z</time>
      </trkpt>
      <trkpt lat="50.64166" lon="2.48203">
        <ele>17.933509</ele>
        <time>2024-07-30T13:56:40.861Z</time>
      </trkpt>
      <trkpt lat="50.64185" lon="2.4816">
        <ele>17.920353</ele>
        <time>2024-07-30T13:56:45.791Z</time>
      </trkpt>
      <trkpt lat="50.64232" lon="2.48038">
        <ele>17.90017</ele>
        <time>2024-07-30T13:56:59.094Z</time>
      </trkpt>
      <trkpt lat="50.64315" lon="2.47729">
        <ele>17.926241</ele>
        <time>2024-07-30T13:57:30.729Z</time>
      </trkpt>
      <trkpt lat="50.64378" lon="2.47496">
        <ele>17.975121</ele>
        <time>2024-07-30T13:57:54.722Z</time>
      </trkpt>
      <trkpt lat="50.64477" lon="2.47286">
        <ele>18.00792</ele>
        <time>2024-07-30T13:58:19.471Z</time>
      </trkpt>
      <trkpt lat="50.64544" lon="2.47158">
        <ele>18.029325</ele>
        <time>2024-07-30T13:58:35.174Z</time>
      </trkpt>
      <trkpt lat="50.64575" lon="2.47098">
        <ele>18.060828</ele>
        <time>2024-07-30T13:58:42.543Z</time>
      </trkpt>
      <trkpt lat="50.64631" lon="2.46988">
        <ele>18.225604</ele>
        <time>2024-07-30T13:58:56.474Z</time>
      </trkpt>
      <trkpt lat="50.64662" lon="2.46943">
        <ele>18.302591</ele>
        <time>2024-07-30T13:59:03.028Z</time>
      </trkpt>
      <trkpt lat="50.64741" lon="2.46855">
        <ele>18.507657</ele>
        <time>2024-07-30T13:59:18.272Z</time>
      </trkpt>
      <trkpt lat="50.64751" lon="2.46844">
        <ele>18.535663</ele>
        <time>2024-07-30T13:59:20.191Z</time>
      </trkpt>
      <trkpt lat="50.64808" lon="2.46772">
        <ele>18.702281</ele>
        <time>2024-07-30T13:59:31.805Z</time>
      </trkpt>
      <trkpt lat="50.64903" lon="2.46647">
        <ele>18.963177</ele>
        <time>2024-07-30T13:59:51.312Z</time>
      </trkpt>
      <trkpt lat="50.64935" lon="2.46612">
        <ele>19.043205</ele>
        <time>2024-07-30T13:59:57.391Z</time>
      </trkpt>
      <trkpt lat="50.64997" lon="2.46571">
        <ele>19.13857</ele>
        <time>2024-07-30T14:00:07.688Z</time>
      </trkpt>
      <trkpt lat="50.65015" lon="2.4656">
        <ele>19.13064</ele>
        <time>2024-07-30T14:00:10.573Z</time>
      </trkpt>
      <trkpt lat="50.65025" lon="2.4656">
        <ele>19.126522</ele>
        <time>2024-07-30T14:00:12.120Z</time>
      </trkpt>
      <trkpt lat="50.65043" lon="2.46603">
        <ele>19.113268</ele>
        <time>2024-07-30T14:00:16.791Z</time>
      </trkpt>
      <trkpt lat="50.65056" lon="2.4662">
        <ele>19.106057</ele>
        <time>2024-07-30T14:00:19.252Z</time>
      </trkpt>
      <trkpt lat="50.6507" lon="2.46624">
        <ele>19.100406</ele>
        <time>2024-07-30T14:00:21.242Z</time>
      </trkpt>
      <trkpt lat="50.65111" lon="2.46618">
        <ele>19.083332</ele>
        <time>2024-07-30T14:00:27.281Z</time>
      </trkpt>
      <trkpt lat="50.65121" lon="2.46618">
        <ele>19.079255</ele>
        <time>2024-07-30T14:00:28.740Z</time>
      </trkpt>
      <trkpt lat="50.65151" lon="2.46621">
        <ele>19.080379</ele>
        <time>2024-07-30T14:00:33.143Z</time>
      </trkpt>
      <trkpt lat="50.6516" lon="2.46622">
        <ele>19.087478</ele>
        <time>2024-07-30T14:00:34.416Z</time>
      </trkpt>
      <trkpt lat="50.65179" lon="2.46616">
        <ele>19.102366</ele>
        <time>2024-07-30T14:00:37.124Z</time>
      </trkpt>
      <trkpt lat="50.65202" lon="2.46602">
        <ele>19.121884</ele>
        <time>2024-07-30T14:00:40.794Z</time>
      </trkpt>
      <trkpt lat="50.6524" lon="2.46572">
        <ele>19.155344</ele>
        <time>2024-07-30T14:00:47.381Z</time>
      </trkpt>
      <trkpt lat="50.65258" lon="2.46562">
        <ele>19.170743</ele>
        <time>2024-07-30T14:00:50.293Z</time>
      </trkpt>
      <trkpt lat="50.65359" lon="2.46529">
        <ele>19.35491</ele>
        <time>2024-07-30T14:01:06.202Z</time>
      </trkpt>
      <trkpt lat="50.65372" lon="2.46522">
        <ele>19.393623</ele>
        <time>2024-07-30T14:01:08.368Z</time>
      </trkpt>
      <trkpt lat="50.65377" lon="2.4651">
        <ele>19.421333</ele>
        <time>2024-07-30T14:01:09.995Z</time>
      </trkpt>
      <trkpt lat="50.654" lon="2.4652">
        <ele>19.48911</ele>
        <time>2024-07-30T14:01:15.032Z</time>
      </trkpt>
      <trkpt lat="50.65506" lon="2.46569">
        <ele>19.795993</ele>
        <time>2024-07-30T14:01:39.131Z</time>
      </trkpt>
      <trkpt lat="50.65575" lon="2.46612">
        <ele>19.983649</ele>
        <time>2024-07-30T14:01:54.065Z</time>
      </trkpt>
      <trkpt lat="50.65614" lon="2.4663">
        <ele>20.08614</ele>
        <time>2024-07-30T14:02:02.675Z</time>
      </trkpt>
      <trkpt lat="50.65623" lon="2.46637">
        <ele>20.11077</ele>
        <time>2024-07-30T14:02:04.887Z</time>
      </trkpt>
      <trkpt lat="50.6563" lon="2.46649">
        <ele>20.136264</ele>
        <time>2024-07-30T14:02:06.964Z</time>
      </trkpt>
      <trkpt lat="50.65658" lon="2.46712">
        <ele>20.33149</ele>
        <time>2024-07-30T14:02:17.944Z</time>
      </trkpt>
      <trkpt lat="50.65677" lon="2.46746">
        <ele>20.472774</ele>
        <time>2024-07-30T14:02:24.479Z</time>
      </trkpt>
      <trkpt lat="50.65718" lon="2.46793">
        <ele>20.719177</ele>
        <time>2024-07-30T14:02:35.758Z</time>
      </trkpt>
      <trkpt lat="50.65764" lon="2.46833">
        <ele>20.975578</ele>
        <time>2024-07-30T14:02:47.072Z</time>
      </trkpt>
      <trkpt lat="50.65796" lon="2.46851">
        <ele>21.099583</ele>
        <time>2024-07-30T14:02:54.816Z</time>
      </trkpt>
      <trkpt lat="50.65859" lon="2.46871">
        <ele>21.255681</ele>
        <time>2024-07-30T14:03:09.578Z</time>
      </trkpt>
      <trkpt lat="50.65955" lon="2.4689">
        <ele>21.492138</ele>
        <time>2024-07-30T14:03:29.137Z</time>
      </trkpt>
      <trkpt lat="50.66018" lon="2.46927">
        <ele>21.348379</ele>
        <time>2024-07-30T14:03:41.876Z</time>
      </trkpt>
      <trkpt lat="50.66096" lon="2.46986">
        <ele>21.148708</ele>
        <time>2024-07-30T14:03:58.733Z</time>
      </trkpt>
      <trkpt lat="50.66183" lon="2.47027">
        <ele>21.156702</ele>
        <time>2024-07-30T14:04:16.469Z</time>
      </trkpt>
      <trkpt lat="50.66217" lon="2.47047">
        <ele>21.199449</ele>
        <time>2024-07-30T14:04:23.936Z</time>
      </trkpt>
      <trkpt lat="50.66254" lon="2.47074">
        <ele>21.247908</ele>
        <time>2024-07-30T14:04:32.770Z</time>
      </trkpt>
      <trkpt lat="50.663" lon="2.47106">
        <ele>21.325623</ele>
        <time>2024-07-30T14:04:43.499Z</time>
      </trkpt>
      <trkpt lat="50.66339" lon="2.47145">
        <ele>21.47388</ele>
        <time>2024-07-30T14:04:53.683Z</time>
      </trkpt>
      <trkpt lat="50.66388" lon="2.47187">
        <ele>21.650087</ele>
        <time>2024-07-30T14:05:05.455Z</time>
      </trkpt>
      <trkpt lat="50.66415" lon="2.47219">
        <ele>21.757011</ele>
        <time>2024-07-30T14:05:12.673Z</time>
      </trkpt>
      <trkpt lat="50.66465" lon="2.47265">
        <ele>21.897653</ele>
        <time>2024-07-30T14:05:25.433Z</time>
      </trkpt>
      <trkpt lat="50.66485" lon="2.47279">
        <ele>21.927464</ele>
        <time>2024-07-30T14:05:30.084Z</time>
      </trkpt>
      <trkpt lat="50.66525" lon="2.47315">
        <ele>21.989622</ele>
        <time>2024-07-30T14:05:39.584Z</time>
      </trkpt>
      <trkpt lat="50.66597" lon="2.47391">
        <ele>22.106829</ele>
        <time>2024-07-30T14:05:56.701Z</time>
      </trkpt>
      <trkpt lat="50.66603" lon="2.474">
        <ele>22.176361</ele>
        <time>2024-07-30T14:05:58.396Z</time>
      </trkpt>
      <trkpt lat="50.66636" lon="2.4743">
        <ele>22.560582</ele>
        <time>2024-07-30T14:06:06.564Z</time>
      </trkpt>
      <trkpt lat="50.66679" lon="2.47458">
        <ele>23.035677</ele>
        <time>2024-07-30T14:06:17.630Z</time>
      </trkpt>
      <trkpt lat="50.66716" lon="2.47492">
        <ele>23.471028</ele>
        <time>2024-07-30T14:06:28.593Z</time>
      </trkpt>
      <trkpt lat="50.66732" lon="2.475">
        <ele>23.632418</ele>
        <time>2024-07-30T14:06:32.714Z</time>
      </trkpt>
      <trkpt lat="50.66749" lon="2.47445">
        <ele>24.11171</ele>
        <time>2024-07-30T14:06:43.349Z</time>
      </trkpt>
      <trkpt lat="50.6678" lon="2.47318">
        <ele>25.792926</ele>
        <time>2024-07-30T14:07:08.068Z</time>
      </trkpt>
      <trkpt lat="50.66782" lon="2.47312">
        <ele>25.870628</ele>
        <time>2024-07-30T14:07:09.227Z</time>
      </trkpt>
      <trkpt lat="50.66807" lon="2.47225">
        <ele>27.041183</ele>
        <time>2024-07-30T14:07:26.670Z</time>
      </trkpt>
      <trkpt lat="50.66844" lon="2.47111">
        <ele>28.303706</ele>
        <time>2024-07-30T14:07:48.030Z</time>
      </trkpt>
      <trkpt lat="50.66876" lon="2.47042">
        <ele>29.0677</ele>
        <time>2024-07-30T14:08:01.585Z</time>
      </trkpt>
      <trkpt lat="50.66876" lon="2.47041">
        <ele>29.079872</ele>
        <time>2024-07-30T14:08:01.813Z</time>
      </trkpt>
      <trkpt lat="50.669" lon="2.47007">
        <ele>29.54364</ele>
        <time>2024-07-30T14:08:10.280Z</time>
      </trkpt>
      <trkpt lat="50.6692" lon="2.46986">
        <ele>29.87962</ele>
        <time>2024-07-30T14:08:16.440Z</time>
      </trkpt>
      <trkpt lat="50.66994" lon="2.46922">
        <ele>30.498562</ele>
        <time>2024-07-30T14:08:37.151Z</time>
      </trkpt>
      <trkpt lat="50.6704" lon="2.46887">
        <ele>30.838968</ele>
        <time>2024-07-30T14:08:49.234Z</time>
      </trkpt>
      <trkpt lat="50.67095" lon="2.47202">
        <ele>30.969915</ele>
        <time>2024-07-30T14:09:18.687Z</time>
      </trkpt>
      <trkpt lat="50.67105" lon="2.47246">
        <ele>30.935518</ele>
        <time>2024-07-30T14:09:22.701Z</time>
      </trkpt>
      <trkpt lat="50.67135" lon="2.4735">
        <ele>30.949517</ele>
        <time>2024-07-30T14:09:33.245Z</time>
      </trkpt>
      <trkpt lat="50.67183" lon="2.47514">
        <ele>30.971323</ele>
        <time>2024-07-30T14:09:51.082Z</time>
      </trkpt>
      <trkpt lat="50.67226" lon="2.47634">
        <ele>30.985557</ele>
        <time>2024-07-30T14:10:04.161Z</time>
      </trkpt>
      <trkpt lat="50.67235" lon="2.47669">
        <ele>30.989487</ele>
        <time>2024-07-30T14:10:07.737Z</time>
      </trkpt>
      <trkpt lat="50.67244" lon="2.47662">
        <ele>30.991065</ele>
        <time>2024-07-30T14:10:09.749Z</time>
      </trkpt>
      <trkpt lat="50.67273" lon="2.4761">
        <ele>30.998264</ele>
        <time>2024-07-30T14:10:18.541Z</time>
      </trkpt>
      <trkpt lat="50.67296" lon="2.47548">
        <ele>30.974521</ele>
        <time>2024-07-30T14:10:27.139Z</time>
      </trkpt>
      <trkpt lat="50.67323" lon="2.47469">
        <ele>30.941525</ele>
        <time>2024-07-30T14:10:37.968Z</time>
      </trkpt>
      <trkpt lat="50.67337" lon="2.47431">
        <ele>30.925447</ele>
        <time>2024-07-30T14:10:43.422Z</time>
      </trkpt>
      <trkpt lat="50.67353" lon="2.47405">
        <ele>30.912051</ele>
        <time>2024-07-30T14:10:48.116Z</time>
      </trkpt>
      <trkpt lat="50.67392" lon="2.4736">
        <ele>31.058898</ele>
        <time>2024-07-30T14:10:58.602Z</time>
      </trkpt>
      <trkpt lat="50.67422" lon="2.47333">
        <ele>31.377923</ele>
        <time>2024-07-30T14:11:06.636Z</time>
      </trkpt>
      <trkpt lat="50.67427" lon="2.4733">
        <ele>31.428721</ele>
        <time>2024-07-30T14:11:07.891Z</time>
      </trkpt>
      <trkpt lat="50.67501" lon="2.47269">
        <ele>32.192406</ele>
        <time>2024-07-30T14:11:27.868Z</time>
      </trkpt>
      <trkpt lat="50.67592" lon="2.47157">
        <ele>33.562462</ele>
        <time>2024-07-30T14:11:58.204Z</time>
      </trkpt>
      <trkpt lat="50.67605" lon="2.47137">
        <ele>33.805192</ele>
        <time>2024-07-30T14:12:03.077Z</time>
      </trkpt>
      <trkpt lat="50.67622" lon="2.47095">
        <ele>34.224631</ele>
        <time>2024-07-30T14:12:11.406Z</time>
      </trkpt>
      <trkpt lat="50.67636" lon="2.4707">
        <ele>34.502967</ele>
        <time>2024-07-30T14:12:16.726Z</time>
      </trkpt>
      <trkpt lat="50.67733" lon="2.46956">
        <ele>35.262531</ele>
        <time>2024-07-30T14:12:45.124Z</time>
      </trkpt>
      <trkpt lat="50.67806" lon="2.46839">
        <ele>35.528651</ele>
        <time>2024-07-30T14:13:06.041Z</time>
      </trkpt>
      <trkpt lat="50.67881" lon="2.4674">
        <ele>35.018433</ele>
        <time>2024-07-30T14:13:23.869Z</time>
      </trkpt>
      <trkpt lat="50.67868" lon="2.4671">
        <ele>34.896287</ele>
        <time>2024-07-30T14:13:28.091Z</time>
      </trkpt>
      <trkpt lat="50.67849" lon="2.46679">
        <ele>34.754484</ele>
        <time>2024-07-30T14:13:32.972Z</time>
      </trkpt>
      <trkpt lat="50.67801" lon="2.46628">
        <ele>34.515749</ele>
        <time>2024-07-30T14:13:43.422Z</time>
      </trkpt>
      <trkpt lat="50.6779" lon="2.46612">
        <ele>34.46337</ele>
        <time>2024-07-30T14:13:46.059Z</time>
      </trkpt>
      <trkpt lat="50.67789" lon="2.46609">
        <ele>34.453443</ele>
        <time>2024-07-30T14:13:46.557Z</time>
      </trkpt>
      <trkpt lat="50.67756" lon="2.46542">
        <ele>34.258141</ele>
        <time>2024-07-30T14:13:56.590Z</time>
      </trkpt>
      <trkpt lat="50.67709" lon="2.4647">
        <ele>34.022415</ele>
        <time>2024-07-30T14:14:09.399Z</time>
      </trkpt>
      <trkpt lat="50.6768" lon="2.46415">
        <ele>34.14665</ele>
        <time>2024-07-30T14:14:18.650Z</time>
      </trkpt>
      <trkpt lat="50.67558" lon="2.46123">
        <ele>35.002861</ele>
        <time>2024-07-30T14:15:07.811Z</time>
      </trkpt>
      <trkpt lat="50.67549" lon="2.46088">
        <ele>35.112867</ele>
        <time>2024-07-30T14:15:13.254Z</time>
      </trkpt>
      <trkpt lat="50.67554" lon="2.45913">
        <ele>35.516556</ele>
        <time>2024-07-30T14:15:37.441Z</time>
      </trkpt>
      <trkpt lat="50.67682" lon="2.45934">
        <ele>35.76011</ele>
        <time>2024-07-30T14:15:57.108Z</time>
      </trkpt>
      <trkpt lat="50.67932" lon="2.45986">
        <ele>36.295162</ele>
        <time>2024-07-30T14:16:35.113Z</time>
      </trkpt>
      <trkpt lat="50.68131" lon="2.46025">
        <ele>38.083661</ele>
        <time>2024-07-30T14:17:12.941Z</time>
      </trkpt>
      <trkpt lat="50.68272" lon="2.46048">
        <ele>40.290531</ele>
        <time>2024-07-30T14:17:41.480Z</time>
      </trkpt>
      <trkpt lat="50.68349" lon="2.46058">
        <ele>42.108769</ele>
        <time>2024-07-30T14:17:59.827Z</time>
      </trkpt>
      <trkpt lat="50.6846" lon="2.46086">
        <ele>45.865905</ele>
        <time>2024-07-30T14:18:30.393Z</time>
      </trkpt>
      <trkpt lat="50.6859" lon="2.46109">
        <ele>51.786116</ele>
        <time>2024-07-30T14:19:16.894Z</time>
      </trkpt>
      <trkpt lat="50.68621" lon="2.46119">
        <ele>53.156353</ele>
        <time>2024-07-30T14:19:28.110Z</time>
      </trkpt>
      <trkpt lat="50.68641" lon="2.46132">
        <ele>54.111958</ele>
        <time>2024-07-30T14:19:35.884Z</time>
      </trkpt>
      <trkpt lat="50.6865" lon="2.46138">
        <ele>54.566669</ele>
        <time>2024-07-30T14:19:39.583Z</time>
      </trkpt>
      <trkpt lat="50.68665" lon="2.46141">
        <ele>55.231266</ele>
        <time>2024-07-30T14:19:44.871Z</time>
      </trkpt>
      <trkpt lat="50.68667" lon="2.46142">
        <ele>55.288984</ele>
        <time>2024-07-30T14:19:45.336Z</time>
      </trkpt>
      <trkpt lat="50.68723" lon="2.46135">
        <ele>57.78313</ele>
        <time>2024-07-30T14:20:03.855Z</time>
      </trkpt>
      <trkpt lat="50.68814" lon="2.46154">
        <ele>60.16361</ele>
        <time>2024-07-30T14:20:29.144Z</time>
      </trkpt>
      <trkpt lat="50.68821" lon="2.46155">
        <ele>60.233392</ele>
        <time>2024-07-30T14:20:30.526Z</time>
      </trkpt>
      <trkpt lat="50.69144" lon="2.46217">
        <ele>61.254077</ele>
        <time>2024-07-30T14:21:20.078Z</time>
      </trkpt>
      <trkpt lat="50.69453" lon="2.46288">
        <ele>56.332618</ele>
        <time>2024-07-30T14:21:55.363Z</time>
      </trkpt>
      <trkpt lat="50.69583" lon="2.46311">
        <ele>53.993359</ele>
        <time>2024-07-30T14:22:09.170Z</time>
      </trkpt>
      <trkpt lat="50.6969" lon="2.46341">
        <ele>52.691834</ele>
        <time>2024-07-30T14:22:22.540Z</time>
      </trkpt>
      <trkpt lat="50.69816" lon="2.46356">
        <ele>52.694355</ele>
        <time>2024-07-30T14:22:43.686Z</time>
      </trkpt>
      <trkpt lat="50.69816" lon="2.46386">
        <ele>52.68048</ele>
        <time>2024-07-30T14:22:47.697Z</time>
      </trkpt>
      <trkpt lat="50.6983" lon="2.46457">
        <ele>52.150936</ele>
        <time>2024-07-30T14:22:57.092Z</time>
      </trkpt>
      <trkpt lat="50.69836" lon="2.465">
        <ele>51.829088</ele>
        <time>2024-07-30T14:23:02.243Z</time>
      </trkpt>
      <trkpt lat="50.6984" lon="2.46558">
        <ele>51.408192</ele>
        <time>2024-07-30T14:23:08.529Z</time>
      </trkpt>
      <trkpt lat="50.6984" lon="2.46657">
        <ele>50.6943</ele>
        <time>2024-07-30T14:23:18.351Z</time>
      </trkpt>
      <trkpt lat="50.69838" lon="2.46705">
        <ele>49.855397</ele>
        <time>2024-07-30T14:23:22.981Z</time>
      </trkpt>
      <trkpt lat="50.69835" lon="2.46753">
        <ele>48.937426</ele>
        <time>2024-07-30T14:23:27.543Z</time>
      </trkpt>
      <trkpt lat="50.69828" lon="2.46843">
        <ele>47.215833</ele>
        <time>2024-07-30T14:23:35.930Z</time>
      </trkpt>
      <trkpt lat="50.69829" lon="2.46942">
        <ele>45.324228</ele>
        <time>2024-07-30T14:23:44.957Z</time>
      </trkpt>
      <trkpt lat="50.69825" lon="2.46956">
        <ele>45.037366</ele>
        <time>2024-07-30T14:23:46.375Z</time>
      </trkpt>
      <trkpt lat="50.69811" lon="2.4699">
        <ele>44.299585</ele>
        <time>2024-07-30T14:23:50.028Z</time>
      </trkpt>
      <trkpt lat="50.698" lon="2.4705">
        <ele>43.141167</ele>
        <time>2024-07-30T14:23:55.831Z</time>
      </trkpt>
      <trkpt lat="50.69786" lon="2.47061">
        <ele>42.693419</ele>
        <time>2024-07-30T14:23:58.113Z</time>
      </trkpt>
      <trkpt lat="50.69785" lon="2.47079">
        <ele>42.361498</ele>
        <time>2024-07-30T14:23:59.779Z</time>
      </trkpt>
      <trkpt lat="50.69792" lon="2.47173">
        <ele>40.630239</ele>
        <time>2024-07-30T14:24:08.737Z</time>
      </trkpt>
      <trkpt lat="50.69774" lon="2.47324">
        <ele>38.484474</ele>
        <time>2024-07-30T14:24:23.809Z</time>
      </trkpt>
      <trkpt lat="50.6977" lon="2.47451">
        <ele>36.864465</ele>
        <time>2024-07-30T14:24:36.723Z</time>
      </trkpt>
      <trkpt lat="50.69761" lon="2.47531">
        <ele>35.904527</ele>
        <time>2024-07-30T14:24:44.977Z</time>
      </trkpt>
      <trkpt lat="50.69752" lon="2.47571">
        <ele>35.432773</ele>
        <time>2024-07-30T14:24:49.279Z</time>
      </trkpt>
      <trkpt lat="50.6972" lon="2.47681">
        <ele>34.09204</ele>
        <time>2024-07-30T14:25:01.491Z</time>
      </trkpt>
      <trkpt lat="50.69678" lon="2.47858">
        <ele>32.536116</ele>
        <time>2024-07-30T14:25:21.014Z</time>
      </trkpt>
      <trkpt lat="50.69659" lon="2.47933">
        <ele>32.024145</ele>
        <time>2024-07-30T14:25:29.561Z</time>
      </trkpt>
      <trkpt lat="50.69646" lon="2.48032">
        <ele>31.693164</ele>
        <time>2024-07-30T14:25:41.039Z</time>
      </trkpt>
      <trkpt lat="50.69627" lon="2.48112">
        <ele>33.578549</ele>
        <time>2024-07-30T14:25:55.429Z</time>
      </trkpt>
      <trkpt lat="50.69622" lon="2.48136">
        <ele>34.141103</ele>
        <time>2024-07-30T14:26:00.167Z</time>
      </trkpt>
      <trkpt lat="50.69604" lon="2.48228">
        <ele>36.265998</ele>
        <time>2024-07-30T14:26:23.096Z</time>
      </trkpt>
      <trkpt lat="50.69601" lon="2.48239">
        <ele>36.532002</ele>
        <time>2024-07-30T14:26:26.047Z</time>
      </trkpt>
      <trkpt lat="50.69565" lon="2.48386">
        <ele>42.475375</ele>
        <time>2024-07-30T14:27:13.656Z</time>
      </trkpt>
      <trkpt lat="50.69558" lon="2.48425">
        <ele>44.352678</ele>
        <time>2024-07-30T14:27:27.505Z</time>
      </trkpt>
      <trkpt lat="50.69553" lon="2.48479">
        <ele>46.853354</ele>
        <time>2024-07-30T14:27:46.268Z</time>
      </trkpt>
      <trkpt lat="50.69548" lon="2.48582">
        <ele>51.217178</ele>
        <time>2024-07-30T14:28:19.425Z</time>
      </trkpt>
      <trkpt lat="50.69542" lon="2.48603">
        <ele>51.754981</ele>
        <time>2024-07-30T14:28:26.098Z</time>
      </trkpt>
      <trkpt lat="50.69503" lon="2.48688">
        <ele>54.151663</ele>
        <time>2024-07-30T14:28:52.332Z</time>
      </trkpt>
      <trkpt lat="50.69458" lon="2.48786">
        <ele>56.950558</ele>
        <time>2024-07-30T14:29:14.225Z</time>
      </trkpt>
      <trkpt lat="50.69425" lon="2.48852">
        <ele>56.713579</ele>
        <time>2024-07-30T14:29:24.909Z</time>
      </trkpt>
      <trkpt lat="50.69404" lon="2.48919">
        <ele>56.001381</ele>
        <time>2024-07-30T14:29:32.821Z</time>
      </trkpt>
      <trkpt lat="50.69397" lon="2.48938">
        <ele>55.790887</ele>
        <time>2024-07-30T14:29:35.031Z</time>
      </trkpt>
      <trkpt lat="50.69336" lon="2.49045">
        <ele>54.118116</ele>
        <time>2024-07-30T14:29:48.703Z</time>
      </trkpt>
      <trkpt lat="50.69316" lon="2.49086">
        <ele>52.932726</ele>
        <time>2024-07-30T14:29:53.503Z</time>
      </trkpt>
      <trkpt lat="50.69289" lon="2.49142">
        <ele>51.353849</ele>
        <time>2024-07-30T14:29:59.851Z</time>
      </trkpt>
      <trkpt lat="50.69252" lon="2.49237">
        <ele>48.85676</ele>
        <time>2024-07-30T14:30:09.769Z</time>
      </trkpt>
      <trkpt lat="50.69224" lon="2.49285">
        <ele>47.308799</ele>
        <time>2024-07-30T14:30:15.542Z</time>
      </trkpt>
      <trkpt lat="50.69217" lon="2.49347">
        <ele>45.753629</ele>
        <time>2024-07-30T14:30:21.130Z</time>
      </trkpt>
      <trkpt lat="50.69197" lon="2.49422">
        <ele>43.758051</ele>
        <time>2024-07-30T14:30:28.349Z</time>
      </trkpt>
      <trkpt lat="50.69195" lon="2.49458">
        <ele>42.856474</ele>
        <time>2024-07-30T14:30:31.631Z</time>
      </trkpt>
      <trkpt lat="50.69209" lon="2.4959">
        <ele>40.45</ele>
        <time>2024-07-30T14:30:43.773Z</time>
      </trkpt>
      <trkpt lat="50.69209" lon="2.49692">
        <ele>39.250118</ele>
        <time>2024-07-30T14:30:53.240Z</time>
      </trkpt>
      <trkpt lat="50.69207" lon="2.49914">
        <ele>39.371781</ele>
        <time>2024-07-30T14:31:22.159Z</time>
      </trkpt>
      <trkpt lat="50.69203" lon="2.49945">
        <ele>39.803869</ele>
        <time>2024-07-30T14:31:28.178Z</time>
      </trkpt>
      <trkpt lat="50.69196" lon="2.49982">
        <ele>40.321838</ele>
        <time>2024-07-30T14:31:36.033Z</time>
      </trkpt>
      <trkpt lat="50.69157" lon="2.50123">
        <ele>42.611235</ele>
        <time>2024-07-30T14:32:11.162Z</time>
      </trkpt>
      <trkpt lat="50.69145" lon="2.50214">
        <ele>44.274784</ele>
        <time>2024-07-30T14:32:33.108Z</time>
      </trkpt>
      <trkpt lat="50.69137" lon="2.50301">
        <ele>45.83048</ele>
        <time>2024-07-30T14:32:50.254Z</time>
      </trkpt>
      <trkpt lat="50.69131" lon="2.50341">
        <ele>46.565583</ele>
        <time>2024-07-30T14:32:56.844Z</time>
      </trkpt>
      <trkpt lat="50.69126" lon="2.50357">
        <ele>46.765757</ele>
        <time>2024-07-30T14:32:59.370Z</time>
      </trkpt>
      <trkpt lat="50.69119" lon="2.50396">
        <ele>46.499687</ele>
        <time>2024-07-30T14:33:04.487Z</time>
      </trkpt>
      <trkpt lat="50.69093" lon="2.505">
        <ele>45.767989</ele>
        <time>2024-07-30T14:33:16.595Z</time>
      </trkpt>
      <trkpt lat="50.69054" lon="2.50617">
        <ele>44.905024</ele>
        <time>2024-07-30T14:33:29.725Z</time>
      </trkpt>
      <trkpt lat="50.69107" lon="2.50651">
        <ele>44.229475</ele>
        <time>2024-07-30T14:33:39.127Z</time>
      </trkpt>
      <trkpt lat="50.6916" lon="2.50693">
        <ele>43.539884</ele>
        <time>2024-07-30T14:33:49.102Z</time>
      </trkpt>
      <trkpt lat="50.69185" lon="2.50716">
        <ele>43.198259</ele>
        <time>2024-07-30T14:33:54.401Z</time>
      </trkpt>
      <trkpt lat="50.69208" lon="2.50745">
        <ele>42.862807</ele>
        <time>2024-07-30T14:33:59.848Z</time>
      </trkpt>
      <trkpt lat="50.69223" lon="2.50769">
        <ele>42.81338</ele>
        <time>2024-07-30T14:34:03.918Z</time>
      </trkpt>
      <trkpt lat="50.69261" lon="2.50817">
        <ele>42.734894</ele>
        <time>2024-07-30T14:34:13.228Z</time>
      </trkpt>
      <trkpt lat="50.69294" lon="2.50851">
        <ele>42.672163</ele>
        <time>2024-07-30T14:34:20.516Z</time>
      </trkpt>
      <trkpt lat="50.69301" lon="2.50863">
        <ele>42.654835</ele>
        <time>2024-07-30T14:34:22.603Z</time>
      </trkpt>
      <trkpt lat="50.69348" lon="2.50961">
        <ele>42.828744</ele>
        <time>2024-07-30T14:34:38.666Z</time>
      </trkpt>
      <trkpt lat="50.69382" lon="2.5101">
        <ele>43.590848</ele>
        <time>2024-07-30T14:34:49.307Z</time>
      </trkpt>
      <trkpt lat="50.69429" lon="2.50944">
        <ele>44.639624</ele>
        <time>2024-07-30T14:35:02.466Z</time>
      </trkpt>
      <trkpt lat="50.69594" lon="2.5072">
        <ele>50.966651</ele>
        <time>2024-07-30T14:36:03.125Z</time>
      </trkpt>
      <trkpt lat="50.69628" lon="2.50666">
        <ele>52.458775</ele>
        <time>2024-07-30T14:36:17.634Z</time>
      </trkpt>
      <trkpt lat="50.69635" lon="2.50655">
        <ele>52.730138</ele>
        <time>2024-07-30T14:36:20.514Z</time>
      </trkpt>
      <trkpt lat="50.69653" lon="2.50622">
        <ele>53.558632</ele>
        <time>2024-07-30T14:36:29.030Z</time>
      </trkpt>
      <trkpt lat="50.69664" lon="2.50601">
        <ele>54.056409</ele>
        <time>2024-07-30T14:36:33.843Z</time>
      </trkpt>
      <trkpt lat="50.69675" lon="2.50577">
        <ele>54.599978</ele>
        <time>2024-07-30T14:36:39.072Z</time>
      </trkpt>
      <trkpt lat="50.6971" lon="2.50504">
        <ele>56.290301</ele>
        <time>2024-07-30T14:36:53.668Z</time>
      </trkpt>
      <trkpt lat="50.69733" lon="2.50458">
        <ele>56.818803</ele>
        <time>2024-07-30T14:37:01.780Z</time>
      </trkpt>
      <trkpt lat="50.69745" lon="2.50438">
        <ele>56.843314</ele>
        <time>2024-07-30T14:37:05.232Z</time>
      </trkpt>
      <trkpt lat="50.69926" lon="2.50144">
        <ele>56.557707</ele>
        <time>2024-07-30T14:37:39.978Z</time>
      </trkpt>
      <trkpt lat="50.69951" lon="2.50118">
        <ele>56.43344</ele>
        <time>2024-07-30T14:37:44.061Z</time>
      </trkpt>
      <trkpt lat="50.69996" lon="2.5009">
        <ele>56.173915</ele>
        <time>2024-07-30T14:37:50.759Z</time>
      </trkpt>
      <trkpt lat="50.70022" lon="2.50071">
        <ele>55.943679</ele>
        <time>2024-07-30T14:37:54.697Z</time>
      </trkpt>
      <trkpt lat="50.70053" lon="2.50037">
        <ele>55.646408</ele>
        <time>2024-07-30T14:37:59.427Z</time>
      </trkpt>
      <trkpt lat="50.70095" lon="2.4997">
        <ele>55.173024</ele>
        <time>2024-07-30T14:38:06.781Z</time>
      </trkpt>
      <trkpt lat="50.70118" lon="2.49917">
        <ele>54.853316</ele>
        <time>2024-07-30T14:38:11.683Z</time>
      </trkpt>
      <trkpt lat="50.70134" lon="2.49874">
        <ele>54.618055</ele>
        <time>2024-07-30T14:38:15.487Z</time>
      </trkpt>
      <trkpt lat="50.70148" lon="2.49848">
        <ele>54.460346</ele>
        <time>2024-07-30T14:38:18.014Z</time>
      </trkpt>
      <trkpt lat="50.70193" lon="2.49779">
        <ele>53.996414</ele>
        <time>2024-07-30T14:38:25.642Z</time>
      </trkpt>
      <trkpt lat="50.70223" lon="2.49732">
        <ele>53.683193</ele>
        <time>2024-07-30T14:38:31.121Z</time>
      </trkpt>
      <trkpt lat="50.70246" lon="2.49688">
        <ele>53.694927</ele>
        <time>2024-07-30T14:38:36.383Z</time>
      </trkpt>
      <trkpt lat="50.7026" lon="2.49651">
        <ele>53.938715</ele>
        <time>2024-07-30T14:38:41.320Z</time>
      </trkpt>
      <trkpt lat="50.70315" lon="2.49477">
        <ele>55.022064</ele>
        <time>2024-07-30T14:39:05.996Z</time>
      </trkpt>
      <trkpt lat="50.70328" lon="2.49448">
        <ele>55.133729</ele>
        <time>2024-07-30T14:39:10.409Z</time>
      </trkpt>
      <trkpt lat="50.70345" lon="2.49422">
        <ele>55.140641</ele>
        <time>2024-07-30T14:39:14.904Z</time>
      </trkpt>
      <trkpt lat="50.70399" lon="2.49511">
        <ele>55.163482</ele>
        <time>2024-07-30T14:39:31.665Z</time>
      </trkpt>
      <trkpt lat="50.70417" lon="2.49561">
        <ele>55.174022</ele>
        <time>2024-07-30T14:39:38.429Z</time>
      </trkpt>
      <trkpt lat="50.70436" lon="2.49614">
        <ele>55.074173</ele>
        <time>2024-07-30T14:39:45.150Z</time>
      </trkpt>
      <trkpt lat="50.70382" lon="2.49729">
        <ele>53.821592</ele>
        <time>2024-07-30T14:39:59.838Z</time>
      </trkpt>
      <trkpt lat="50.70358" lon="2.49787">
        <ele>53.214183</ele>
        <time>2024-07-30T14:40:06.990Z</time>
      </trkpt>
      <trkpt lat="50.70316" lon="2.4992">
        <ele>52.681632</ele>
        <time>2024-07-30T14:40:23.037Z</time>
      </trkpt>
      <trkpt lat="50.70265" lon="2.501">
        <ele>52.701232</ele>
        <time>2024-07-30T14:40:49.441Z</time>
      </trkpt>
      <trkpt lat="50.70228" lon="2.50206">
        <ele>54.716029</ele>
        <time>2024-07-30T14:41:11.914Z</time>
      </trkpt>
      <trkpt lat="50.70138" lon="2.5039">
        <ele>58.142905</ele>
        <time>2024-07-30T14:42:01.755Z</time>
      </trkpt>
      <trkpt lat="50.70109" lon="2.50434">
        <ele>58.795987</ele>
        <time>2024-07-30T14:42:14.010Z</time>
      </trkpt>
      <trkpt lat="50.70068" lon="2.50486">
        <ele>59.656464</ele>
        <time>2024-07-30T14:42:27.734Z</time>
      </trkpt>
      <trkpt lat="50.70052" lon="2.50507">
        <ele>59.988895</ele>
        <time>2024-07-30T14:42:32.202Z</time>
      </trkpt>
      <trkpt lat="50.70002" lon="2.50634">
        <ele>58.52704</ele>
        <time>2024-07-30T14:42:48.255Z</time>
      </trkpt>
      <trkpt lat="50.69966" lon="2.5075">
        <ele>56.538847</ele>
        <time>2024-07-30T14:43:00.136Z</time>
      </trkpt>
      <trkpt lat="50.69914" lon="2.50861">
        <ele>53.332445</ele>
        <time>2024-07-30T14:43:12.473Z</time>
      </trkpt>
      <trkpt lat="50.69892" lon="2.50938">
        <ele>51.157113</ele>
        <time>2024-07-30T14:43:19.834Z</time>
      </trkpt>
      <trkpt lat="50.69882" lon="2.50965">
        <ele>50.34455</ele>
        <time>2024-07-30T14:43:22.564Z</time>
      </trkpt>
      <trkpt lat="50.69741" lon="2.51289">
        <ele>40.206468</ele>
        <time>2024-07-30T14:43:57.191Z</time>
      </trkpt>
      <trkpt lat="50.6968" lon="2.51419">
        <ele>36.713535</ele>
        <time>2024-07-30T14:44:11.999Z</time>
      </trkpt>
      <trkpt lat="50.69679" lon="2.51422">
        <ele>36.644415</ele>
        <time>2024-07-30T14:44:12.306Z</time>
      </trkpt>
      <trkpt lat="50.69609" lon="2.51587">
        <ele>33.183861</ele>
        <time>2024-07-30T14:44:31.114Z</time>
      </trkpt>
      <trkpt lat="50.69556" lon="2.51808">
        <ele>30.415172</ele>
        <time>2024-07-30T14:44:54.666Z</time>
      </trkpt>
      <trkpt lat="50.69554" lon="2.51815">
        <ele>30.379382</ele>
        <time>2024-07-30T14:44:55.376Z</time>
      </trkpt>
      <trkpt lat="50.69545" lon="2.51808">
        <ele>30.298602</ele>
        <time>2024-07-30T14:44:56.647Z</time>
      </trkpt>
      <trkpt lat="50.69493" lon="2.51772">
        <ele>29.85097</ele>
        <time>2024-07-30T14:45:03.889Z</time>
      </trkpt>
      <trkpt lat="50.69465" lon="2.51757">
        <ele>29.61179</ele>
        <time>2024-07-30T14:45:08.053Z</time>
      </trkpt>
      <trkpt lat="50.69355" lon="2.51741">
        <ele>30.104701</ele>
        <time>2024-07-30T14:45:26.699Z</time>
      </trkpt>
      <trkpt lat="50.69332" lon="2.51734">
        <ele>30.325638</ele>
        <time>2024-07-30T14:45:31.533Z</time>
      </trkpt>
      <trkpt lat="50.69285" lon="2.51703">
        <ele>30.80279</ele>
        <time>2024-07-30T14:45:42.436Z</time>
      </trkpt>
      <trkpt lat="50.69256" lon="2.51677">
        <ele>30.984934</ele>
        <time>2024-07-30T14:45:49.586Z</time>
      </trkpt>
      <trkpt lat="50.69216" lon="2.51627">
        <ele>30.509621</ele>
        <time>2024-07-30T14:45:58.028Z</time>
      </trkpt>
      <trkpt lat="50.69171" lon="2.51571">
        <ele>29.959383</ele>
        <time>2024-07-30T14:46:05.374Z</time>
      </trkpt>
      <trkpt lat="50.69162" lon="2.51561">
        <ele>29.85757</ele>
        <time>2024-07-30T14:46:06.531Z</time>
      </trkpt>
      <trkpt lat="50.69144" lon="2.51539">
        <ele>29.643493</ele>
        <time>2024-07-30T14:46:08.960Z</time>
      </trkpt>
      <trkpt lat="50.69112" lon="2.51626">
        <ele>28.257438</ele>
        <time>2024-07-30T14:46:15.458Z</time>
      </trkpt>
      <trkpt lat="50.6909" lon="2.51682">
        <ele>26.85654</ele>
        <time>2024-07-30T14:46:19.558Z</time>
      </trkpt>
      <trkpt lat="50.69062" lon="2.5174">
        <ele>25.30834</ele>
        <time>2024-07-30T14:46:23.962Z</time>
      </trkpt>
      <trkpt lat="50.68929" lon="2.52018">
        <ele>19.382572</ele>
        <time>2024-07-30T14:46:46.945Z</time>
      </trkpt>
      <trkpt lat="50.689" lon="2.52078">
        <ele>18.724865</ele>
        <time>2024-07-30T14:46:52.866Z</time>
      </trkpt>
      <trkpt lat="50.68889" lon="2.52108">
        <ele>18.577494</ele>
        <time>2024-07-30T14:46:55.631Z</time>
      </trkpt>
      <trkpt lat="50.68851" lon="2.52221">
        <ele>18.028125</ele>
        <time>2024-07-30T14:47:06.314Z</time>
      </trkpt>
      <trkpt lat="50.68784" lon="2.52399">
        <ele>17.510318</ele>
        <time>2024-07-30T14:47:24.691Z</time>
      </trkpt>
      <trkpt lat="50.68743" lon="2.52539">
        <ele>17.282802</ele>
        <time>2024-07-30T14:47:38.394Z</time>
      </trkpt>
      <trkpt lat="50.68642" lon="2.52839">
        <ele>16.739768</ele>
        <time>2024-07-30T14:48:08.319Z</time>
      </trkpt>
      <trkpt lat="50.68631" lon="2.52853">
        <ele>16.718042</ele>
        <time>2024-07-30T14:48:10.199Z</time>
      </trkpt>
      <trkpt lat="50.68613" lon="2.52863">
        <ele>16.688864</ele>
        <time>2024-07-30T14:48:12.866Z</time>
      </trkpt>
      <trkpt lat="50.68563" lon="2.52869">
        <ele>16.612159</ele>
        <time>2024-07-30T14:48:19.855Z</time>
      </trkpt>
      <trkpt lat="50.68522" lon="2.52919">
        <ele>16.532231</ele>
        <time>2024-07-30T14:48:27.612Z</time>
      </trkpt>
      <trkpt lat="50.68507" lon="2.52944">
        <ele>16.527718</ele>
        <time>2024-07-30T14:48:30.810Z</time>
      </trkpt>
      <trkpt lat="50.68445" lon="2.53085">
        <ele>16.590736</ele>
        <time>2024-07-30T14:48:47.336Z</time>
      </trkpt>
      <trkpt lat="50.68411" lon="2.53174">
        <ele>16.620461</ele>
        <time>2024-07-30T14:48:57.390Z</time>
      </trkpt>
      <trkpt lat="50.68381" lon="2.53259">
        <ele>16.594308</ele>
        <time>2024-07-30T14:49:06.779Z</time>
      </trkpt>
      <trkpt lat="50.68456" lon="2.53286">
        <ele>16.56166</ele>
        <time>2024-07-30T14:49:22.156Z</time>
      </trkpt>
      <trkpt lat="50.68839" lon="2.53419">
        <ele>16.046827</ele>
        <time>2024-07-30T14:50:38.805Z</time>
      </trkpt>
      <trkpt lat="50.68847" lon="2.53422">
        <ele>16.064272</ele>
        <time>2024-07-30T14:50:40.400Z</time>
      </trkpt>
      <trkpt lat="50.68864" lon="2.53437">
        <ele>16.112692</ele>
        <time>2024-07-30T14:50:44.372Z</time>
      </trkpt>
      <trkpt lat="50.68886" lon="2.53469">
        <ele>16.188014</ele>
        <time>2024-07-30T14:50:50.694Z</time>
      </trkpt>
      <trkpt lat="50.69033" lon="2.53735">
        <ele>16.763258</ele>
        <time>2024-07-30T14:51:39.350Z</time>
      </trkpt>
      <trkpt lat="50.69078" lon="2.53816">
        <ele>16.944999</ele>
        <time>2024-07-30T14:51:53.607Z</time>
      </trkpt>
      <trkpt lat="50.69171" lon="2.53982">
        <ele>16.97828</ele>
        <time>2024-07-30T14:52:22.132Z</time>
      </trkpt>
      <trkpt lat="50.69222" lon="2.54066">
        <ele>16.949627</ele>
        <time>2024-07-30T14:52:36.797Z</time>
      </trkpt>
      <trkpt lat="50.69362" lon="2.54258">
        <ele>16.695022</ele>
        <time>2024-07-30T14:53:13.289Z</time>
      </trkpt>
      <trkpt lat="50.69534" lon="2.54485">
        <ele>16.52286</ele>
        <time>2024-07-30T14:53:57.037Z</time>
      </trkpt>
      <trkpt lat="50.69695" lon="2.54706">
        <ele>17.035361</ele>
        <time>2024-07-30T14:54:42.942Z</time>
      </trkpt>
      <trkpt lat="50.6972" lon="2.54747">
        <ele>17.167029</ele>
        <time>2024-07-30T14:54:50.933Z</time>
      </trkpt>
      <trkpt lat="50.69725" lon="2.5474">
        <ele>17.192061</ele>
        <time>2024-07-30T14:54:52.072Z</time>
      </trkpt>
      <trkpt lat="50.69729" lon="2.54736">
        <ele>17.210551</ele>
        <time>2024-07-30T14:54:52.920Z</time>
      </trkpt>
      <trkpt lat="50.69752" lon="2.54708">
        <ele>17.310462</ele>
        <time>2024-07-30T14:54:57.673Z</time>
      </trkpt>
      <trkpt lat="50.69768" lon="2.54696">
        <ele>17.353428</ele>
        <time>2024-07-30T14:55:00.566Z</time>
      </trkpt>
      <trkpt lat="50.69854" lon="2.54653">
        <ele>17.577021</ele>
        <time>2024-07-30T14:55:15.370Z</time>
      </trkpt>
      <trkpt lat="50.69947" lon="2.54598">
        <ele>17.696217</ele>
        <time>2024-07-30T14:55:30.418Z</time>
      </trkpt>
      <trkpt lat="50.69964" lon="2.54588">
        <ele>17.66916</ele>
        <time>2024-07-30T14:55:33.001Z</time>
      </trkpt>
      <trkpt lat="50.70149" lon="2.54473">
        <ele>17.272846</ele>
        <time>2024-07-30T14:56:00.543Z</time>
      </trkpt>
      <trkpt lat="50.70189" lon="2.54446">
        <ele>17.146803</ele>
        <time>2024-07-30T14:56:06.463Z</time>
      </trkpt>
      <trkpt lat="50.70396" lon="2.5431">
        <ele>16.74996</ele>
        <time>2024-07-30T14:56:38.202Z</time>
      </trkpt>
      <trkpt lat="50.70405" lon="2.54301">
        <ele>16.73684</ele>
        <time>2024-07-30T14:56:39.749Z</time>
      </trkpt>
      <trkpt lat="50.70412" lon="2.54289">
        <ele>16.723464</ele>
        <time>2024-07-30T14:56:41.336Z</time>
      </trkpt>
      <trkpt lat="50.70452" lon="2.54182">
        <ele>16.871173</ele>
        <time>2024-07-30T14:56:53.532Z</time>
      </trkpt>
      <trkpt lat="50.70467" lon="2.5415">
        <ele>16.922829</ele>
        <time>2024-07-30T14:56:57.603Z</time>
      </trkpt>
      <trkpt lat="50.70515" lon="2.54228">
        <ele>17.061367</ele>
        <time>2024-07-30T14:57:08.615Z</time>
      </trkpt>
      <trkpt lat="50.70564" lon="2.54308">
        <ele>17.103633</ele>
        <time>2024-07-30T14:57:19.414Z</time>
      </trkpt>
      <trkpt lat="50.70525" lon="2.54434">
        <ele>17.136613</ele>
        <time>2024-07-30T14:57:32.394Z</time>
      </trkpt>
      <trkpt lat="50.70489" lon="2.546">
        <ele>17.231174</ele>
        <time>2024-07-30T14:57:49.135Z</time>
      </trkpt>
      <trkpt lat="50.70471" lon="2.54657">
        <ele>17.273256</ele>
        <time>2024-07-30T14:57:55.487Z</time>
      </trkpt>
      <trkpt lat="50.70446" lon="2.54707">
        <ele>17.314795</ele>
        <time>2024-07-30T14:58:01.698Z</time>
      </trkpt>
      <trkpt lat="50.70384" lon="2.54793">
        <ele>17.409024</ele>
        <time>2024-07-30T14:58:14.487Z</time>
      </trkpt>
      <trkpt lat="50.70306" lon="2.54904">
        <ele>17.531014</ele>
        <time>2024-07-30T14:58:30.747Z</time>
      </trkpt>
      <trkpt lat="50.70286" lon="2.54946">
        <ele>17.515189</ele>
        <time>2024-07-30T14:58:35.629Z</time>
      </trkpt>
      <trkpt lat="50.70259" lon="2.55012">
        <ele>17.454868</ele>
        <time>2024-07-30T14:58:42.663Z</time>
      </trkpt>
      <trkpt lat="50.70247" lon="2.5505">
        <ele>17.422674</ele>
        <time>2024-07-30T14:58:46.379Z</time>
      </trkpt>
      <trkpt lat="50.70242" lon="2.55063">
        <ele>17.41137</ele>
        <time>2024-07-30T14:58:47.704Z</time>
      </trkpt>
      <trkpt lat="50.70223" lon="2.55106">
        <ele>17.370697</ele>
        <time>2024-07-30T14:58:52.451Z</time>
      </trkpt>
      <trkpt lat="50.70192" lon="2.5516">
        <ele>17.317552</ele>
        <time>2024-07-30T14:58:59.065Z</time>
      </trkpt>
      <trkpt lat="50.70131" lon="2.55228">
        <ele>17.250485</ele>
        <time>2024-07-30T14:59:09.833Z</time>
      </trkpt>
      <trkpt lat="50.701" lon="2.55268">
        <ele>17.214362</ele>
        <time>2024-07-30T14:59:15.517Z</time>
      </trkpt>
      <trkpt lat="50.69986" lon="2.55449">
        <ele>17.126356</ele>
        <time>2024-07-30T14:59:39.216Z</time>
      </trkpt>
      <trkpt lat="50.69959" lon="2.55491">
        <ele>17.113227</ele>
        <time>2024-07-30T14:59:44.801Z</time>
      </trkpt>
      <trkpt lat="50.69448" lon="2.56305">
        <ele>17.277622</ele>
        <time>2024-07-30T15:01:32.472Z</time>
      </trkpt>
      <trkpt lat="50.69311" lon="2.56508">
        <ele>18.14602</ele>
        <time>2024-07-30T15:02:04.368Z</time>
      </trkpt>
      <trkpt lat="50.69294" lon="2.56529">
        <ele>18.259968</ele>
        <time>2024-07-30T15:02:08.153Z</time>
      </trkpt>
      <trkpt lat="50.69265" lon="2.56554">
        <ele>18.322859</ele>
        <time>2024-07-30T15:02:13.860Z</time>
      </trkpt>
      <trkpt lat="50.69253" lon="2.56562">
        <ele>18.347069</ele>
        <time>2024-07-30T15:02:16.192Z</time>
      </trkpt>
      <trkpt lat="50.68679" lon="2.56819">
        <ele>19.381931</ele>
        <time>2024-07-30T15:03:47.968Z</time>
      </trkpt>
      <trkpt lat="50.68628" lon="2.56845">
        <ele>19.444512</ele>
        <time>2024-07-30T15:03:56.268Z</time>
      </trkpt>
      <trkpt lat="50.68603" lon="2.56862">
        <ele>19.46749</ele>
        <time>2024-07-30T15:04:00.418Z</time>
      </trkpt>
      <trkpt lat="50.68571" lon="2.56893">
        <ele>19.418037</ele>
        <time>2024-07-30T15:04:05.910Z</time>
      </trkpt>
      <trkpt lat="50.68552" lon="2.56914">
        <ele>19.386206</ele>
        <time>2024-07-30T15:04:09.333Z</time>
      </trkpt>
      <trkpt lat="50.68525" lon="2.56945">
        <ele>19.342384</ele>
        <time>2024-07-30T15:04:13.889Z</time>
      </trkpt>
      <trkpt lat="50.68485" lon="2.57009">
        <ele>19.266464</ele>
        <time>2024-07-30T15:04:21.827Z</time>
      </trkpt>
      <trkpt lat="50.6843" lon="2.57107">
        <ele>19.115678</ele>
        <time>2024-07-30T15:04:33.895Z</time>
      </trkpt>
      <trkpt lat="50.68403" lon="2.57146">
        <ele>19.04086</ele>
        <time>2024-07-30T15:04:39.048Z</time>
      </trkpt>
      <trkpt lat="50.68369" lon="2.57183">
        <ele>18.958031</ele>
        <time>2024-07-30T15:04:44.715Z</time>
      </trkpt>
      <trkpt lat="50.6831" lon="2.57223">
        <ele>18.823206</ele>
        <time>2024-07-30T15:04:53.616Z</time>
      </trkpt>
      <trkpt lat="50.68287" lon="2.57231">
        <ele>18.772731</ele>
        <time>2024-07-30T15:04:56.806Z</time>
      </trkpt>
      <trkpt lat="50.68293" lon="2.57243">
        <ele>18.752001</ele>
        <time>2024-07-30T15:04:58.147Z</time>
      </trkpt>
      <trkpt lat="50.68315" lon="2.57269">
        <ele>18.691513</ele>
        <time>2024-07-30T15:05:02.047Z</time>
      </trkpt>
      <trkpt lat="50.68319" lon="2.57274">
        <ele>18.680484</ele>
        <time>2024-07-30T15:05:02.776Z</time>
      </trkpt>
      <trkpt lat="50.68336" lon="2.573">
        <ele>18.628403</ele>
        <time>2024-07-30T15:05:06.109Z</time>
      </trkpt>
      <trkpt lat="50.68402" lon="2.57376">
        <ele>18.469409</ele>
        <time>2024-07-30T15:05:17.706Z</time>
      </trkpt>
      <trkpt lat="50.68408" lon="2.57385">
        <ele>18.469163</ele>
        <time>2024-07-30T15:05:18.796Z</time>
      </trkpt>
      <trkpt lat="50.68508" lon="2.57561">
        <ele>18.464379</ele>
        <time>2024-07-30T15:05:40.723Z</time>
      </trkpt>
      <trkpt lat="50.68509" lon="2.57564">
        <ele>18.464293</ele>
        <time>2024-07-30T15:05:41.169Z</time>
      </trkpt>
      <trkpt lat="50.68569" lon="2.57664">
        <ele>18.745678</ele>
        <time>2024-07-30T15:05:55.002Z</time>
      </trkpt>
      <trkpt lat="50.68603" lon="2.57703">
        <ele>18.899717</ele>
        <time>2024-07-30T15:06:01.973Z</time>
      </trkpt>
      <trkpt lat="50.68626" lon="2.57735">
        <ele>19.0093</ele>
        <time>2024-07-30T15:06:06.941Z</time>
      </trkpt>
      <trkpt lat="50.6869" lon="2.57839">
        <ele>19.432854</ele>
        <time>2024-07-30T15:06:22.776Z</time>
      </trkpt>
      <trkpt lat="50.68695" lon="2.57849">
        <ele>19.474038</ele>
        <time>2024-07-30T15:06:24.262Z</time>
      </trkpt>
      <trkpt lat="50.68701" lon="2.57865">
        <ele>19.53376</ele>
        <time>2024-07-30T15:06:26.335Z</time>
      </trkpt>
      <trkpt lat="50.68709" lon="2.57895">
        <ele>19.640523</ele>
        <time>2024-07-30T15:06:30.032Z</time>
      </trkpt>
      <trkpt lat="50.68719" lon="2.58">
        <ele>19.97891</ele>
        <time>2024-07-30T15:06:41.270Z</time>
      </trkpt>
      <trkpt lat="50.68726" lon="2.58075">
        <ele>19.959132</ele>
        <time>2024-07-30T15:06:48.931Z</time>
      </trkpt>
      <trkpt lat="50.68733" lon="2.58118">
        <ele>19.908734</ele>
        <time>2024-07-30T15:06:53.013Z</time>
      </trkpt>
      <trkpt lat="50.68831" lon="2.58482">
        <ele>19.145206</ele>
        <time>2024-07-30T15:07:26.661Z</time>
      </trkpt>
      <trkpt lat="50.68839" lon="2.58511">
        <ele>19.065427</ele>
        <time>2024-07-30T15:07:29.353Z</time>
      </trkpt>
      <trkpt lat="50.68844" lon="2.58531">
        <ele>19.009534</ele>
        <time>2024-07-30T15:07:31.228Z</time>
      </trkpt>
      <trkpt lat="50.68863" lon="2.58599">
        <ele>18.929176</ele>
        <time>2024-07-30T15:07:37.722Z</time>
      </trkpt>
      <trkpt lat="50.69029" lon="2.59133">
        <ele>18.677835</ele>
        <time>2024-07-30T15:08:32.900Z</time>
      </trkpt>
      <trkpt lat="50.6905" lon="2.59196">
        <ele>18.647168</ele>
        <time>2024-07-30T15:08:39.658Z</time>
      </trkpt>
      <trkpt lat="50.69059" lon="2.59217">
        <ele>18.636315</ele>
        <time>2024-07-30T15:08:41.976Z</time>
      </trkpt>
      <trkpt lat="50.69096" lon="2.59308">
        <ele>18.591644</ele>
        <time>2024-07-30T15:08:51.769Z</time>
      </trkpt>
      <trkpt lat="50.69106" lon="2.59342">
        <ele>18.58458</ele>
        <time>2024-07-30T15:08:55.175Z</time>
      </trkpt>
      <trkpt lat="50.69141" lon="2.59508">
        <ele>18.551217</ele>
        <time>2024-07-30T15:09:11.480Z</time>
      </trkpt>
      <trkpt lat="50.69168" lon="2.59694">
        <ele>18.620765</ele>
        <time>2024-07-30T15:09:29.853Z</time>
      </trkpt>
      <trkpt lat="50.69198" lon="2.59901">
        <ele>18.689733</ele>
        <time>2024-07-30T15:09:50.494Z</time>
      </trkpt>
      <trkpt lat="50.69258" lon="2.60166">
        <ele>18.545202</ele>
        <time>2024-07-30T15:10:15.798Z</time>
      </trkpt>
      <trkpt lat="50.69283" lon="2.6028">
        <ele>18.512048</ele>
        <time>2024-07-30T15:10:26.965Z</time>
      </trkpt>
      <trkpt lat="50.69291" lon="2.60326">
        <ele>18.499001</ele>
        <time>2024-07-30T15:10:31.470Z</time>
      </trkpt>
      <trkpt lat="50.69298" lon="2.60406">
        <ele>18.49446</ele>
        <time>2024-07-30T15:10:39.315Z</time>
      </trkpt>
      <trkpt lat="50.69305" lon="2.60646">
        <ele>18.662321</ele>
        <time>2024-07-30T15:11:02.794Z</time>
      </trkpt>
      <trkpt lat="50.69359" lon="2.61011">
        <ele>18.640643</ele>
        <time>2024-07-30T15:11:37.895Z</time>
      </trkpt>
      <trkpt lat="50.69373" lon="2.61119">
        <ele>18.556657</ele>
        <time>2024-07-30T15:11:47.861Z</time>
      </trkpt>
      <trkpt lat="50.69378" lon="2.61241">
        <ele>18.450577</ele>
        <time>2024-07-30T15:11:58.877Z</time>
      </trkpt>
      <trkpt lat="50.69375" lon="2.61288">
        <ele>18.370171</ele>
        <time>2024-07-30T15:12:02.993Z</time>
      </trkpt>
      <trkpt lat="50.69363" lon="2.61329">
        <ele>18.292632</ele>
        <time>2024-07-30T15:12:06.966Z</time>
      </trkpt>
      <trkpt lat="50.69325" lon="2.61433">
        <ele>18.087416</ele>
        <time>2024-07-30T15:12:17.597Z</time>
      </trkpt>
      <trkpt lat="50.69303" lon="2.61498">
        <ele>17.945349</ele>
        <time>2024-07-30T15:12:24.039Z</time>
      </trkpt>
      <trkpt lat="50.693" lon="2.61525">
        <ele>17.867434</ele>
        <time>2024-07-30T15:12:26.510Z</time>
      </trkpt>
      <trkpt lat="50.693" lon="2.61546">
        <ele>17.811187</ele>
        <time>2024-07-30T15:12:28.248Z</time>
      </trkpt>
      <trkpt lat="50.69354" lon="2.61813">
        <ele>17.02103</ele>
        <time>2024-07-30T15:12:51.797Z</time>
      </trkpt>
      <trkpt lat="50.69393" lon="2.62028">
        <ele>16.380904</ele>
        <time>2024-07-30T15:13:10.652Z</time>
      </trkpt>
      <trkpt lat="50.6945" lon="2.6236">
        <ele>16.055497</ele>
        <time>2024-07-30T15:13:41.608Z</time>
      </trkpt>
      <trkpt lat="50.69462" lon="2.62432">
        <ele>16.046386</ele>
        <time>2024-07-30T15:13:48.651Z</time>
      </trkpt>
      <trkpt lat="50.69466" lon="2.62486">
        <ele>16.039669</ele>
        <time>2024-07-30T15:13:53.864Z</time>
      </trkpt>
      <trkpt lat="50.69474" lon="2.62836">
        <ele>16.02648</ele>
        <time>2024-07-30T15:14:26.961Z</time>
      </trkpt>
      <trkpt lat="50.69483" lon="2.63139">
        <ele>15.722618</ele>
        <time>2024-07-30T15:14:54.086Z</time>
      </trkpt>
      <trkpt lat="50.69039" lon="2.63239">
        <ele>15.363612</ele>
        <time>2024-07-30T15:15:58.952Z</time>
      </trkpt>
      <trkpt lat="50.69012" lon="2.63249">
        <ele>15.38709</ele>
        <time>2024-07-30T15:16:03.362Z</time>
      </trkpt>
      <trkpt lat="50.68841" lon="2.6337">
        <ele>15.675987</ele>
        <time>2024-07-30T15:16:32.829Z</time>
      </trkpt>
      <trkpt lat="50.68803" lon="2.63405">
        <ele>15.760919</ele>
        <time>2024-07-30T15:16:39.377Z</time>
      </trkpt>
      <trkpt lat="50.68713" lon="2.63512">
        <ele>15.867516</ele>
        <time>2024-07-30T15:16:56.511Z</time>
      </trkpt>
      <trkpt lat="50.68684" lon="2.63535">
        <ele>15.891723</ele>
        <time>2024-07-30T15:17:01.362Z</time>
      </trkpt>
      <trkpt lat="50.68646" lon="2.63551">
        <ele>15.921169</ele>
        <time>2024-07-30T15:17:07.334Z</time>
      </trkpt>
      <trkpt lat="50.68554" lon="2.63582">
        <ele>15.962121</ele>
        <time>2024-07-30T15:17:21.653Z</time>
      </trkpt>
      <trkpt lat="50.68342" lon="2.63628">
        <ele>16.053357</ele>
        <time>2024-07-30T15:17:53.252Z</time>
      </trkpt>
      <trkpt lat="50.68327" lon="2.63634">
        <ele>16.060124</ele>
        <time>2024-07-30T15:17:55.521Z</time>
      </trkpt>
      <trkpt lat="50.684" lon="2.6392">
        <ele>16.201914</ele>
        <time>2024-07-30T15:18:25.641Z</time>
      </trkpt>
      <trkpt lat="50.68318" lon="2.63959">
        <ele>16.148127</ele>
        <time>2024-07-30T15:18:37.901Z</time>
      </trkpt>
      <trkpt lat="50.6825" lon="2.63983">
        <ele>16.037269</ele>
        <time>2024-07-30T15:18:47.740Z</time>
      </trkpt>
      <trkpt lat="50.68175" lon="2.64002">
        <ele>15.930645</ele>
        <time>2024-07-30T15:18:58.526Z</time>
      </trkpt>
      <trkpt lat="50.6812" lon="2.64007">
        <ele>15.887508</ele>
        <time>2024-07-30T15:19:06.533Z</time>
      </trkpt>
      <trkpt lat="50.6808" lon="2.64001">
        <ele>15.856263</ele>
        <time>2024-07-30T15:19:12.388Z</time>
      </trkpt>
      <trkpt lat="50.68035" lon="2.63975">
        <ele>15.818451</ele>
        <time>2024-07-30T15:19:19.496Z</time>
      </trkpt>
      <trkpt lat="50.6801" lon="2.63952">
        <ele>15.798634</ele>
        <time>2024-07-30T15:19:23.844Z</time>
      </trkpt>
      <trkpt lat="50.67978" lon="2.63905">
        <ele>15.777819</ele>
        <time>2024-07-30T15:19:30.207Z</time>
      </trkpt>
      <trkpt lat="50.67961" lon="2.63884">
        <ele>15.767436</ele>
        <time>2024-07-30T15:19:33.387Z</time>
      </trkpt>
      <trkpt lat="50.67952" lon="2.63879">
        <ele>15.762929</ele>
        <time>2024-07-30T15:19:34.741Z</time>
      </trkpt>
      <trkpt lat="50.67943" lon="2.63878">
        <ele>15.75835</ele>
        <time>2024-07-30T15:19:36.116Z</time>
      </trkpt>
      <trkpt lat="50.6783" lon="2.63894">
        <ele>15.692397</ele>
        <time>2024-07-30T15:19:52.390Z</time>
      </trkpt>
      <trkpt lat="50.67697" lon="2.639">
        <ele>15.570083</ele>
        <time>2024-07-30T15:20:11.520Z</time>
      </trkpt>
      <trkpt lat="50.67673" lon="2.6391">
        <ele>15.553764</ele>
        <time>2024-07-30T15:20:15.281Z</time>
      </trkpt>
      <trkpt lat="50.67624" lon="2.63949">
        <ele>15.568331</ele>
        <time>2024-07-30T15:20:23.672Z</time>
      </trkpt>
      <trkpt lat="50.67585" lon="2.63969">
        <ele>15.579105</ele>
        <time>2024-07-30T15:20:29.813Z</time>
      </trkpt>
      <trkpt lat="50.67503" lon="2.63997">
        <ele>15.598003</ele>
        <time>2024-07-30T15:20:42.341Z</time>
      </trkpt>
      <trkpt lat="50.67496" lon="2.63998">
        <ele>15.595151</ele>
        <time>2024-07-30T15:20:43.365Z</time>
      </trkpt>
      <trkpt lat="50.67481" lon="2.64001">
        <ele>15.588917</ele>
        <time>2024-07-30T15:20:45.663Z</time>
      </trkpt>
      <trkpt lat="50.67471" lon="2.63998">
        <ele>15.58463</ele>
        <time>2024-07-30T15:20:47.290Z</time>
      </trkpt>
      <trkpt lat="50.67462" lon="2.63991">
        <ele>15.580878</ele>
        <time>2024-07-30T15:20:48.651Z</time>
      </trkpt>
      <trkpt lat="50.67452" lon="2.63972">
        <ele>15.574314</ele>
        <time>2024-07-30T15:20:51.100Z</time>
      </trkpt>
      <trkpt lat="50.6744" lon="2.63958">
        <ele>15.568431</ele>
        <time>2024-07-30T15:20:53.286Z</time>
      </trkpt>
      <trkpt lat="50.67433" lon="2.63953">
        <ele>15.565312</ele>
        <time>2024-07-30T15:20:54.410Z</time>
      </trkpt>
      <trkpt lat="50.67417" lon="2.63954">
        <ele>15.558952</ele>
        <time>2024-07-30T15:20:56.765Z</time>
      </trkpt>
      <trkpt lat="50.67317" lon="2.63973">
        <ele>15.513678</ele>
        <time>2024-07-30T15:21:11.146Z</time>
      </trkpt>
      <trkpt lat="50.67144" lon="2.64023">
        <ele>15.416643</ele>
        <time>2024-07-30T15:21:36.780Z</time>
      </trkpt>
      <trkpt lat="50.67128" lon="2.64028">
        <ele>15.41494</ele>
        <time>2024-07-30T15:21:39.231Z</time>
      </trkpt>
      <trkpt lat="50.67068" lon="2.64049">
        <ele>15.408601</ele>
        <time>2024-07-30T15:21:48.345Z</time>
      </trkpt>
      <trkpt lat="50.67042" lon="2.64066">
        <ele>15.405714</ele>
        <time>2024-07-30T15:21:52.524Z</time>
      </trkpt>
      <trkpt lat="50.67032" lon="2.64077">
        <ele>15.40445</ele>
        <time>2024-07-30T15:21:54.369Z</time>
      </trkpt>
      <trkpt lat="50.67021" lon="2.64096">
        <ele>15.402753</ele>
        <time>2024-07-30T15:21:56.857Z</time>
      </trkpt>
      <trkpt lat="50.66998" lon="2.64153">
        <ele>15.407682</ele>
        <time>2024-07-30T15:22:03.211Z</time>
      </trkpt>
      <trkpt lat="50.6699" lon="2.64168">
        <ele>15.413672</ele>
        <time>2024-07-30T15:22:05.048Z</time>
      </trkpt>
      <trkpt lat="50.66976" lon="2.64185">
        <ele>15.422694</ele>
        <time>2024-07-30T15:22:07.803Z</time>
      </trkpt>
      <trkpt lat="50.66915" lon="2.64232">
        <ele>15.455818</ele>
        <time>2024-07-30T15:22:17.872Z</time>
      </trkpt>
      <trkpt lat="50.66896" lon="2.64241">
        <ele>15.465634</ele>
        <time>2024-07-30T15:22:20.894Z</time>
      </trkpt>
      <trkpt lat="50.66835" lon="2.6426">
        <ele>15.4968</ele>
        <time>2024-07-30T15:22:30.297Z</time>
      </trkpt>
      <trkpt lat="50.66834" lon="2.64284">
        <ele>15.505186</ele>
        <time>2024-07-30T15:22:33.385Z</time>
      </trkpt>
      <trkpt lat="50.66774" lon="2.64479">
        <ele>15.581278</ele>
        <time>2024-07-30T15:23:01.424Z</time>
      </trkpt>
      <trkpt lat="50.66641" lon="2.64974">
        <ele>15.581546</ele>
        <time>2024-07-30T15:24:10.315Z</time>
      </trkpt>
      <trkpt lat="50.66587" lon="2.65247">
        <ele>15.517252</ele>
        <time>2024-07-30T15:24:46.843Z</time>
      </trkpt>
      <trkpt lat="50.66517" lon="2.6551">
        <ele>15.500879</ele>
        <time>2024-07-30T15:25:23.088Z</time>
      </trkpt>
      <trkpt lat="50.66476" lon="2.6575">
        <ele>15.528344</ele>
        <time>2024-07-30T15:25:55.007Z</time>
      </trkpt>
      <trkpt lat="50.66468" lon="2.6578">
        <ele>15.532895</ele>
        <time>2024-07-30T15:25:59.284Z</time>
      </trkpt>
      <trkpt lat="50.66453" lon="2.65814">
        <ele>15.538472</ele>
        <time>2024-07-30T15:26:04.578Z</time>
      </trkpt>
      <trkpt lat="50.66426" lon="2.6588">
        <ele>15.6407</ele>
        <time>2024-07-30T15:26:14.931Z</time>
      </trkpt>
      <trkpt lat="50.6642" lon="2.65901">
        <ele>15.672918</ele>
        <time>2024-07-30T15:26:18.033Z</time>
      </trkpt>
      <trkpt lat="50.66421" lon="2.65915">
        <ele>15.691811</ele>
        <time>2024-07-30T15:26:19.842Z</time>
      </trkpt>
      <trkpt lat="50.66424" lon="2.65929">
        <ele>15.712278</ele>
        <time>2024-07-30T15:26:21.792Z</time>
      </trkpt>
      <trkpt lat="50.66486" lon="2.66085">
        <ele>15.964612</ele>
        <time>2024-07-30T15:26:46.892Z</time>
      </trkpt>
      <trkpt lat="50.66543" lon="2.66242">
        <ele>16.189567</ele>
        <time>2024-07-30T15:27:11.017Z</time>
      </trkpt>
      <trkpt lat="50.66432" lon="2.66336">
        <ele>16.231046</ele>
        <time>2024-07-30T15:27:29.851Z</time>
      </trkpt>
      <trkpt lat="50.66335" lon="2.66444">
        <ele>16.157427</ele>
        <time>2024-07-30T15:27:46.706Z</time>
      </trkpt>
      <trkpt lat="50.66357" lon="2.66499">
        <ele>16.165102</ele>
        <time>2024-07-30T15:27:52.795Z</time>
      </trkpt>
      <trkpt lat="50.66409" lon="2.66631">
        <ele>16.183556</ele>
        <time>2024-07-30T15:28:07.528Z</time>
      </trkpt>
      <trkpt lat="50.66436" lon="2.66689">
        <ele>16.189663</ele>
        <time>2024-07-30T15:28:14.347Z</time>
      </trkpt>
      <trkpt lat="50.66501" lon="2.66792">
        <ele>16.195591</ele>
        <time>2024-07-30T15:28:28.188Z</time>
      </trkpt>
      <trkpt lat="50.66552" lon="2.66856">
        <ele>16.199803</ele>
        <time>2024-07-30T15:28:37.822Z</time>
      </trkpt>
      <trkpt lat="50.66698" lon="2.67014">
        <ele>16.197834</ele>
        <time>2024-07-30T15:29:03.902Z</time>
      </trkpt>
      <trkpt lat="50.66717" lon="2.67042">
        <ele>16.190754</ele>
        <time>2024-07-30T15:29:07.812Z</time>
      </trkpt>
      <trkpt lat="50.66735" lon="2.67077">
        <ele>16.180923</ele>
        <time>2024-07-30T15:29:12.086Z</time>
      </trkpt>
      <trkpt lat="50.66868" lon="2.67325">
        <ele>16.066251</ele>
        <time>2024-07-30T15:29:42.438Z</time>
      </trkpt>
      <trkpt lat="50.67013" lon="2.67628">
        <ele>15.847063</ele>
        <time>2024-07-30T15:30:16.883Z</time>
      </trkpt>
      <trkpt lat="50.67033" lon="2.67676">
        <ele>15.814246</ele>
        <time>2024-07-30T15:30:22.189Z</time>
      </trkpt>
      <trkpt lat="50.67122" lon="2.67939">
        <ele>15.785894</ele>
        <time>2024-07-30T15:30:50.226Z</time>
      </trkpt>
      <trkpt lat="50.67215" lon="2.68152">
        <ele>15.689048</ele>
        <time>2024-07-30T15:31:14.047Z</time>
      </trkpt>
      <trkpt lat="50.67229" lon="2.68187">
        <ele>15.670323</ele>
        <time>2024-07-30T15:31:17.852Z</time>
      </trkpt>
      <trkpt lat="50.67238" lon="2.68219">
        <ele>15.65074</ele>
        <time>2024-07-30T15:31:21.118Z</time>
      </trkpt>
      <trkpt lat="50.6724" lon="2.6823">
        <ele>15.64451</ele>
        <time>2024-07-30T15:31:22.156Z</time>
      </trkpt>
      <trkpt lat="50.67262" lon="2.6833">
        <ele>15.586045</ele>
        <time>2024-07-30T15:31:31.811Z</time>
      </trkpt>
      <trkpt lat="50.6728" lon="2.68398">
        <ele>15.545045</ele>
        <time>2024-07-30T15:31:38.504Z</time>
      </trkpt>
      <trkpt lat="50.67292" lon="2.68436">
        <ele>15.522912</ele>
        <time>2024-07-30T15:31:42.463Z</time>
      </trkpt>
      <trkpt lat="50.67305" lon="2.68459">
        <ele>15.521898</ele>
        <time>2024-07-30T15:31:45.331Z</time>
      </trkpt>
      <trkpt lat="50.67322" lon="2.68473">
        <ele>15.520915</ele>
        <time>2024-07-30T15:31:48.137Z</time>
      </trkpt>
      <trkpt lat="50.67332" lon="2.68476">
        <ele>15.520388</ele>
        <time>2024-07-30T15:31:49.622Z</time>
      </trkpt>
      <trkpt lat="50.67339" lon="2.68478">
        <ele>15.519993</ele>
        <time>2024-07-30T15:31:50.739Z</time>
      </trkpt>
      <trkpt lat="50.67404" lon="2.6846">
        <ele>15.5166</ele>
        <time>2024-07-30T15:32:00.374Z</time>
      </trkpt>
      <trkpt lat="50.67426" lon="2.68461">
        <ele>15.515446</ele>
        <time>2024-07-30T15:32:03.676Z</time>
      </trkpt>
      <trkpt lat="50.67447" lon="2.68473">
        <ele>15.514289</ele>
        <time>2024-07-30T15:32:07.013Z</time>
      </trkpt>
      <trkpt lat="50.67459" lon="2.68491">
        <ele>15.520691</ele>
        <time>2024-07-30T15:32:09.528Z</time>
      </trkpt>
      <trkpt lat="50.67474" lon="2.68527">
        <ele>15.561706</ele>
        <time>2024-07-30T15:32:13.711Z</time>
      </trkpt>
      <trkpt lat="50.67506" lon="2.68622">
        <ele>15.66259</ele>
        <time>2024-07-30T15:32:24.218Z</time>
      </trkpt>
      <trkpt lat="50.67511" lon="2.68648">
        <ele>15.688294</ele>
        <time>2024-07-30T15:32:26.908Z</time>
      </trkpt>
      <trkpt lat="50.67522" lon="2.68733">
        <ele>15.770256</ele>
        <time>2024-07-30T15:32:35.673Z</time>
      </trkpt>
      <trkpt lat="50.67524" lon="2.68744">
        <ele>15.781375</ele>
        <time>2024-07-30T15:32:36.809Z</time>
      </trkpt>
      <trkpt lat="50.67549" lon="2.69053">
        <ele>15.959642</ele>
        <time>2024-07-30T15:33:06.654Z</time>
      </trkpt>
      <trkpt lat="50.67557" lon="2.6914">
        <ele>15.933368</ele>
        <time>2024-07-30T15:33:14.846Z</time>
      </trkpt>
      <trkpt lat="50.67567" lon="2.69178">
        <ele>15.921182</ele>
        <time>2024-07-30T15:33:18.668Z</time>
      </trkpt>
      <trkpt lat="50.6763" lon="2.69349">
        <ele>15.882539</ele>
        <time>2024-07-30T15:33:36.744Z</time>
      </trkpt>
      <trkpt lat="50.67711" lon="2.69571">
        <ele>15.903009</ele>
        <time>2024-07-30T15:34:01.101Z</time>
      </trkpt>
      <trkpt lat="50.67718" lon="2.69594">
        <ele>15.916249</ele>
        <time>2024-07-30T15:34:03.507Z</time>
      </trkpt>
      <trkpt lat="50.67721" lon="2.69621">
        <ele>15.930654</ele>
        <time>2024-07-30T15:34:06.082Z</time>
      </trkpt>
      <trkpt lat="50.67718" lon="2.69723">
        <ele>15.984306</ele>
        <time>2024-07-30T15:34:15.928Z</time>
      </trkpt>
      <trkpt lat="50.6772" lon="2.69754">
        <ele>16.001054</ele>
        <time>2024-07-30T15:34:18.998Z</time>
      </trkpt>
      <trkpt lat="50.67729" lon="2.69791">
        <ele>16.02183</ele>
        <time>2024-07-30T15:34:22.752Z</time>
      </trkpt>
      <trkpt lat="50.67764" lon="2.699">
        <ele>16.079651</ele>
        <time>2024-07-30T15:34:34.421Z</time>
      </trkpt>
      <trkpt lat="50.67811" lon="2.70047">
        <ele>16.156493</ele>
        <time>2024-07-30T15:34:50.281Z</time>
      </trkpt>
      <trkpt lat="50.67814" lon="2.70053">
        <ele>16.159721</ele>
        <time>2024-07-30T15:34:50.933Z</time>
      </trkpt>
      <trkpt lat="50.67817" lon="2.70063">
        <ele>16.165086</ele>
        <time>2024-07-30T15:34:52.033Z</time>
      </trkpt>
      <trkpt lat="50.67819" lon="2.70069">
        <ele>16.16813</ele>
        <time>2024-07-30T15:34:52.664Z</time>
      </trkpt>
      <trkpt lat="50.67868" lon="2.70197">
        <ele>16.237845</ele>
        <time>2024-07-30T15:35:06.614Z</time>
      </trkpt>
      <trkpt lat="50.67933" lon="2.70355">
        <ele>16.363747</ele>
        <time>2024-07-30T15:35:25.390Z</time>
      </trkpt>
      <trkpt lat="50.67956" lon="2.7041">
        <ele>16.432606</ele>
        <time>2024-07-30T15:35:31.851Z</time>
      </trkpt>
      <trkpt lat="50.67972" lon="2.70464">
        <ele>16.49394</ele>
        <time>2024-07-30T15:35:37.597Z</time>
      </trkpt>
      <trkpt lat="50.67977" lon="2.7049">
        <ele>16.522516</ele>
        <time>2024-07-30T15:35:40.245Z</time>
      </trkpt>
      <trkpt lat="50.67979" lon="2.70524">
        <ele>16.558389</ele>
        <time>2024-07-30T15:35:43.626Z</time>
      </trkpt>
      <trkpt lat="50.67978" lon="2.7055">
        <ele>16.585274</ele>
        <time>2024-07-30T15:35:46.157Z</time>
      </trkpt>
      <trkpt lat="50.67972" lon="2.70579">
        <ele>16.577553</ele>
        <time>2024-07-30T15:35:49.168Z</time>
      </trkpt>
      <trkpt lat="50.67953" lon="2.70624">
        <ele>16.553824</ele>
        <time>2024-07-30T15:35:54.313Z</time>
      </trkpt>
      <trkpt lat="50.67883" lon="2.7074">
        <ele>16.482583</ele>
        <time>2024-07-30T15:36:08.715Z</time>
      </trkpt>
      <trkpt lat="50.67865" lon="2.7077">
        <ele>16.464235</ele>
        <time>2024-07-30T15:36:12.486Z</time>
      </trkpt>
      <trkpt lat="50.67842" lon="2.70803">
        <ele>16.452184</ele>
        <time>2024-07-30T15:36:17.064Z</time>
      </trkpt>
      <trkpt lat="50.67822" lon="2.70823">
        <ele>16.443233</ele>
        <time>2024-07-30T15:36:20.612Z</time>
      </trkpt>
      <trkpt lat="50.67804" lon="2.70836">
        <ele>16.435906</ele>
        <time>2024-07-30T15:36:23.490Z</time>
      </trkpt>
      <trkpt lat="50.67745" lon="2.70866">
        <ele>16.413013</ele>
        <time>2024-07-30T15:36:32.543Z</time>
      </trkpt>
      <trkpt lat="50.67738" lon="2.70869">
        <ele>16.410199</ele>
        <time>2024-07-30T15:36:33.619Z</time>
      </trkpt>
      <trkpt lat="50.67731" lon="2.70873">
        <ele>16.40751</ele>
        <time>2024-07-30T15:36:34.682Z</time>
      </trkpt>
      <trkpt lat="50.67693" lon="2.70902">
        <ele>16.393963</ele>
        <time>2024-07-30T15:36:40.832Z</time>
      </trkpt>
      <trkpt lat="50.66882" lon="2.71658">
        <ele>16.181458</ele>
        <time>2024-07-30T15:39:00.048Z</time>
      </trkpt>
      <trkpt lat="50.66622" lon="2.71892">
        <ele>16.016455</ele>
        <time>2024-07-30T15:39:43.390Z</time>
      </trkpt>
      <trkpt lat="50.66566" lon="2.71944">
        <ele>16.03292</ele>
        <time>2024-07-30T15:39:52.902Z</time>
      </trkpt>
      <trkpt lat="50.66541" lon="2.71971">
        <ele>16.043128</ele>
        <time>2024-07-30T15:39:57.451Z</time>
      </trkpt>
      <trkpt lat="50.66349" lon="2.72215">
        <ele>16.167083</ele>
        <time>2024-07-30T15:40:34.982Z</time>
      </trkpt>
      <trkpt lat="50.66335" lon="2.7223">
        <ele>16.177678</ele>
        <time>2024-07-30T15:40:37.614Z</time>
      </trkpt>
      <trkpt lat="50.66326" lon="2.72234">
        <ele>16.178882</ele>
        <time>2024-07-30T15:40:38.913Z</time>
      </trkpt>
      <trkpt lat="50.66305" lon="2.72236">
        <ele>16.160478</ele>
        <time>2024-07-30T15:40:42.045Z</time>
      </trkpt>
      <trkpt lat="50.66298" lon="2.72257">
        <ele>16.147403</ele>
        <time>2024-07-30T15:40:45.078Z</time>
      </trkpt>
      <trkpt lat="50.66234" lon="2.72336">
        <ele>16.076558</ele>
        <time>2024-07-30T15:41:01.273Z</time>
      </trkpt>
      <trkpt lat="50.66189" lon="2.72405">
        <ele>16.023605</ele>
        <time>2024-07-30T15:41:13.569Z</time>
      </trkpt>
      <trkpt lat="50.66163" lon="2.72451">
        <ele>16.003013</ele>
        <time>2024-07-30T15:41:21.222Z</time>
      </trkpt>
      <trkpt lat="50.66132" lon="2.72514">
        <ele>15.975948</ele>
        <time>2024-07-30T15:41:31.339Z</time>
      </trkpt>
      <trkpt lat="50.65963" lon="2.72883">
        <ele>15.991613</ele>
        <time>2024-07-30T15:42:30.049Z</time>
      </trkpt>
      <trkpt lat="50.65889" lon="2.73027">
        <ele>16.011287</ele>
        <time>2024-07-30T15:42:53.829Z</time>
      </trkpt>
      <trkpt lat="50.6587" lon="2.73059">
        <ele>16.016002</ele>
        <time>2024-07-30T15:42:59.539Z</time>
      </trkpt>
      <trkpt lat="50.65847" lon="2.7308">
        <ele>16.024336</ele>
        <time>2024-07-30T15:43:04.847Z</time>
      </trkpt>
      <trkpt lat="50.65763" lon="2.73125">
        <ele>16.064635</ele>
        <time>2024-07-30T15:43:22.900Z</time>
      </trkpt>
      <trkpt lat="50.65743" lon="2.73141">
        <ele>16.074702</ele>
        <time>2024-07-30T15:43:27.417Z</time>
      </trkpt>
      <trkpt lat="50.65703" lon="2.73198">
        <ele>16.099028</ele>
        <time>2024-07-30T15:43:38.399Z</time>
      </trkpt>
      <trkpt lat="50.65625" lon="2.7333">
        <ele>16.08588</ele>
        <time>2024-07-30T15:44:01.508Z</time>
      </trkpt>
      <trkpt lat="50.65594" lon="2.73364">
        <ele>16.08137</ele>
        <time>2024-07-30T15:44:06.974Z</time>
      </trkpt>
      <trkpt lat="50.65583" lon="2.73369">
        <ele>16.079972</ele>
        <time>2024-07-30T15:44:08.673Z</time>
      </trkpt>
      <trkpt lat="50.65535" lon="2.73364">
        <ele>16.071147</ele>
        <time>2024-07-30T15:44:15.748Z</time>
      </trkpt>
      <trkpt lat="50.65504" lon="2.73369">
        <ele>16.064274</ele>
        <time>2024-07-30T15:44:20.423Z</time>
      </trkpt>
      <trkpt lat="50.65478" lon="2.73397">
        <ele>16.057497</ele>
        <time>2024-07-30T15:44:25.083Z</time>
      </trkpt>
      <trkpt lat="50.65447" lon="2.73445">
        <ele>16.047931</ele>
        <time>2024-07-30T15:44:31.519Z</time>
      </trkpt>
      <trkpt lat="50.65436" lon="2.73452">
        <ele>16.045455</ele>
        <time>2024-07-30T15:44:33.169Z</time>
      </trkpt>
      <trkpt lat="50.65403" lon="2.73458">
        <ele>16.036685</ele>
        <time>2024-07-30T15:44:38.057Z</time>
      </trkpt>
      <trkpt lat="50.65385" lon="2.73471">
        <ele>16.018147</ele>
        <time>2024-07-30T15:44:40.913Z</time>
      </trkpt>
      <trkpt lat="50.65365" lon="2.73504">
        <ele>15.99079</ele>
        <time>2024-07-30T15:44:45.173Z</time>
      </trkpt>
      <trkpt lat="50.65287" lon="2.73674">
        <ele>15.862223</ele>
        <time>2024-07-30T15:45:04.417Z</time>
      </trkpt>
      <trkpt lat="50.6523" lon="2.73771">
        <ele>15.699027</ele>
        <time>2024-07-30T15:45:16.268Z</time>
      </trkpt>
      <trkpt lat="50.65206" lon="2.7382">
        <ele>15.623391</ele>
        <time>2024-07-30T15:45:21.743Z</time>
      </trkpt>
      <trkpt lat="50.65112" lon="2.74084">
        <ele>15.324325</ele>
        <time>2024-07-30T15:45:49.265Z</time>
      </trkpt>
      <trkpt lat="50.65103" lon="2.74094">
        <ele>15.308982</ele>
        <time>2024-07-30T15:45:50.822Z</time>
      </trkpt>
      <trkpt lat="50.65094" lon="2.74098">
        <ele>15.29613</ele>
        <time>2024-07-30T15:45:52.113Z</time>
      </trkpt>
      <trkpt lat="50.65082" lon="2.74096">
        <ele>15.278297</ele>
        <time>2024-07-30T15:45:53.916Z</time>
      </trkpt>
      <trkpt lat="50.65046" lon="2.74059">
        <ele>15.22661</ele>
        <time>2024-07-30T15:45:59.992Z</time>
      </trkpt>
      <trkpt lat="50.65032" lon="2.74052">
        <ele>15.20997</ele>
        <time>2024-07-30T15:46:02.024Z</time>
      </trkpt>
      <trkpt lat="50.65015" lon="2.74073">
        <ele>15.184658</ele>
        <time>2024-07-30T15:46:05.162Z</time>
      </trkpt>
      <trkpt lat="50.6495" lon="2.74181">
        <ele>15.074964</ele>
        <time>2024-07-30T15:46:18.688Z</time>
      </trkpt>
      <trkpt lat="50.64977" lon="2.74241">
        <ele>15.016185</ele>
        <time>2024-07-30T15:46:25.297Z</time>
      </trkpt>
      <trkpt lat="50.65028" lon="2.74315">
        <ele>14.924392</ele>
        <time>2024-07-30T15:46:35.198Z</time>
      </trkpt>
      <trkpt lat="50.6504" lon="2.74329">
        <ele>14.90546</ele>
        <time>2024-07-30T15:46:37.282Z</time>
      </trkpt>
      <trkpt lat="50.65064" lon="2.74345">
        <ele>14.870971</ele>
        <time>2024-07-30T15:46:41.101Z</time>
      </trkpt>
      <trkpt lat="50.6509" lon="2.74375">
        <ele>14.828099</ele>
        <time>2024-07-30T15:46:45.887Z</time>
      </trkpt>
      <trkpt lat="50.65272" lon="2.74629">
        <ele>14.967407</ele>
        <time>2024-07-30T15:47:22.155Z</time>
      </trkpt>
      <trkpt lat="50.65276" lon="2.74635">
        <ele>14.975172</ele>
        <time>2024-07-30T15:47:22.949Z</time>
      </trkpt>
      <trkpt lat="50.65309" lon="2.74691">
        <ele>15.049282</ele>
        <time>2024-07-30T15:47:30.571Z</time>
      </trkpt>
      <trkpt lat="50.65356" lon="2.74794">
        <ele>15.166439</ele>
        <time>2024-07-30T15:47:43.248Z</time>
      </trkpt>
      <trkpt lat="50.65437" lon="2.74966">
        <ele>15.318788</ele>
        <time>2024-07-30T15:48:04.289Z</time>
      </trkpt>
      <trkpt lat="50.65514" lon="2.75129">
        <ele>15.239045</ele>
        <time>2024-07-30T15:48:23.007Z</time>
      </trkpt>
      <trkpt lat="50.65554" lon="2.75207">
        <ele>15.163936</ele>
        <time>2024-07-30T15:48:32.171Z</time>
      </trkpt>
      <trkpt lat="50.65564" lon="2.75231">
        <ele>15.142185</ele>
        <time>2024-07-30T15:48:34.690Z</time>
      </trkpt>
      <trkpt lat="50.65609" lon="2.75344">
        <ele>15.036316</ele>
        <time>2024-07-30T15:48:46.373Z</time>
      </trkpt>
      <trkpt lat="50.65631" lon="2.75398">
        <ele>14.985798</ele>
        <time>2024-07-30T15:48:52.130Z</time>
      </trkpt>
      <trkpt lat="50.65651" lon="2.75445">
        <ele>14.94103</ele>
        <time>2024-07-30T15:48:57.465Z</time>
      </trkpt>
      <trkpt lat="50.65768" lon="2.75702">
        <ele>15.029717</ele>
        <time>2024-07-30T15:49:27.926Z</time>
      </trkpt>
      <trkpt lat="50.65803" lon="2.75755">
        <ele>15.079374</ele>
        <time>2024-07-30T15:49:35.397Z</time>
      </trkpt>
      <trkpt lat="50.65972" lon="2.75999">
        <ele>15.261057</ele>
        <time>2024-07-30T15:50:09.987Z</time>
      </trkpt>
      <trkpt lat="50.66006" lon="2.76036">
        <ele>15.280969</ele>
        <time>2024-07-30T15:50:16.265Z</time>
      </trkpt>
      <trkpt lat="50.66038" lon="2.76056">
        <ele>15.297346</ele>
        <time>2024-07-30T15:50:21.370Z</time>
      </trkpt>
      <trkpt lat="50.66144" lon="2.76126">
        <ele>15.248024</ele>
        <time>2024-07-30T15:50:38.252Z</time>
      </trkpt>
      <trkpt lat="50.66234" lon="2.76198">
        <ele>15.159693</ele>
        <time>2024-07-30T15:50:52.969Z</time>
      </trkpt>
      <trkpt lat="50.66203" lon="2.76314">
        <ele>15.018382</ele>
        <time>2024-07-30T15:51:04.188Z</time>
      </trkpt>
      <trkpt lat="50.66175" lon="2.76444">
        <ele>14.949098</ele>
        <time>2024-07-30T15:51:16.454Z</time>
      </trkpt>
      <trkpt lat="50.6616" lon="2.76478">
        <ele>15.029569</ele>
        <time>2024-07-30T15:51:20.239Z</time>
      </trkpt>
      <trkpt lat="50.66072" lon="2.76577">
        <ele>15.353638</ele>
        <time>2024-07-30T15:51:37.779Z</time>
      </trkpt>
      <trkpt lat="50.6604" lon="2.76612">
        <ele>15.516783</ele>
        <time>2024-07-30T15:51:44.552Z</time>
      </trkpt>
      <trkpt lat="50.66016" lon="2.76634">
        <ele>15.718309</ele>
        <time>2024-07-30T15:51:49.707Z</time>
      </trkpt>
      <trkpt lat="50.65983" lon="2.76659">
        <ele>15.980688</ele>
        <time>2024-07-30T15:51:56.324Z</time>
      </trkpt>
      <trkpt lat="50.65927" lon="2.76704">
        <ele>16.441551</ele>
        <time>2024-07-30T15:52:07.903Z</time>
      </trkpt>
      <trkpt lat="50.65913" lon="2.76714">
        <ele>16.547512</ele>
        <time>2024-07-30T15:52:10.572Z</time>
      </trkpt>
      <trkpt lat="50.65882" lon="2.76747">
        <ele>16.742087</ele>
        <time>2024-07-30T15:52:17.357Z</time>
      </trkpt>
      <trkpt lat="50.65753" lon="2.769">
        <ele>16.837629</ele>
        <time>2024-07-30T15:52:41.085Z</time>
      </trkpt>
      <trkpt lat="50.65698" lon="2.76974">
        <ele>16.717553</ele>
        <time>2024-07-30T15:52:50.992Z</time>
      </trkpt>
      <trkpt lat="50.65615" lon="2.77092">
        <ele>16.504927</ele>
        <time>2024-07-30T15:53:06.795Z</time>
      </trkpt>
      <trkpt lat="50.65578" lon="2.77144">
        <ele>16.490539</ele>
        <time>2024-07-30T15:53:13.844Z</time>
      </trkpt>
      <trkpt lat="50.65505" lon="2.77246">
        <ele>16.469964</ele>
        <time>2024-07-30T15:53:28.450Z</time>
      </trkpt>
      <trkpt lat="50.65447" lon="2.77326">
        <ele>16.51142</ele>
        <time>2024-07-30T15:53:40.256Z</time>
      </trkpt>
      <trkpt lat="50.65413" lon="2.77372">
        <ele>16.563754</ele>
        <time>2024-07-30T15:53:47.175Z</time>
      </trkpt>
      <trkpt lat="50.65222" lon="2.77637">
        <ele>16.799398</ele>
        <time>2024-07-30T15:54:25.992Z</time>
      </trkpt>
      <trkpt lat="50.65121" lon="2.77769">
        <ele>16.856622</ele>
        <time>2024-07-30T15:54:45.638Z</time>
      </trkpt>
      <trkpt lat="50.64786" lon="2.78153">
        <ele>16.806614</ele>
        <time>2024-07-30T15:55:46.613Z</time>
      </trkpt>
      <trkpt lat="50.64532" lon="2.78438">
        <ele>16.739511</ele>
        <time>2024-07-30T15:56:32.660Z</time>
      </trkpt>
      <trkpt lat="50.64511" lon="2.78451">
        <ele>16.727647</ele>
        <time>2024-07-30T15:56:36.163Z</time>
      </trkpt>
      <trkpt lat="50.64504" lon="2.78444">
        <ele>16.723563</ele>
        <time>2024-07-30T15:56:37.244Z</time>
      </trkpt>
      <trkpt lat="50.64497" lon="2.78447">
        <ele>16.719669</ele>
        <time>2024-07-30T15:56:38.332Z</time>
      </trkpt>
      <trkpt lat="50.64493" lon="2.78458">
        <ele>16.715775</ele>
        <time>2024-07-30T15:56:39.485Z</time>
      </trkpt>
      <trkpt lat="50.64495" lon="2.7847">
        <ele>16.711816</ele>
        <time>2024-07-30T15:56:40.678Z</time>
      </trkpt>
      <trkpt lat="50.6449" lon="2.78481">
        <ele>16.705917</ele>
        <time>2024-07-30T15:56:41.880Z</time>
      </trkpt>
      <trkpt lat="50.64319" lon="2.78694">
        <ele>16.354691</ele>
        <time>2024-07-30T15:57:12.415Z</time>
      </trkpt>
      <trkpt lat="50.64184" lon="2.78831">
        <ele>16.295931</ele>
        <time>2024-07-30T15:57:36.113Z</time>
      </trkpt>
      <trkpt lat="50.64165" lon="2.78868">
        <ele>16.346541</ele>
        <time>2024-07-30T15:57:40.864Z</time>
      </trkpt>
      <trkpt lat="50.641" lon="2.79038">
        <ele>16.558627</ele>
        <time>2024-07-30T15:58:00.793Z</time>
      </trkpt>
      <trkpt lat="50.63999" lon="2.7926">
        <ele>16.611768</ele>
        <time>2024-07-30T15:58:26.869Z</time>
      </trkpt>
      <trkpt lat="50.6398" lon="2.79298">
        <ele>16.57363</ele>
        <time>2024-07-30T15:58:31.193Z</time>
      </trkpt>
      <trkpt lat="50.63891" lon="2.79472">
        <ele>16.291426</ele>
        <time>2024-07-30T15:58:51.032Z</time>
      </trkpt>
      <trkpt lat="50.63682" lon="2.79819">
        <ele>15.721734</ele>
        <time>2024-07-30T15:59:33.438Z</time>
      </trkpt>
      <trkpt lat="50.63661" lon="2.79846">
        <ele>15.690062</ele>
        <time>2024-07-30T15:59:37.469Z</time>
      </trkpt>
      <trkpt lat="50.63624" lon="2.79897">
        <ele>15.638867</ele>
        <time>2024-07-30T15:59:44.752Z</time>
      </trkpt>
      <trkpt lat="50.63761" lon="2.80101">
        <ele>15.925735</ele>
        <time>2024-07-30T16:00:14.069Z</time>
      </trkpt>
      <trkpt lat="50.63806" lon="2.80182">
        <ele>16.055331</ele>
        <time>2024-07-30T16:00:24.815Z</time>
      </trkpt>
      <trkpt lat="50.63819" lon="2.80196">
        <ele>16.085158</ele>
        <time>2024-07-30T16:00:27.289Z</time>
      </trkpt>
      <trkpt lat="50.6386" lon="2.80222">
        <ele>16.167947</ele>
        <time>2024-07-30T16:00:34.105Z</time>
      </trkpt>
      <trkpt lat="50.63872" lon="2.80234">
        <ele>16.195919</ele>
        <time>2024-07-30T16:00:36.394Z</time>
      </trkpt>
      <trkpt lat="50.63964" lon="2.80363">
        <ele>16.310112</ele>
        <time>2024-07-30T16:00:55.293Z</time>
      </trkpt>
      <trkpt lat="50.64148" lon="2.80613">
        <ele>16.306109</ele>
        <time>2024-07-30T16:01:30.942Z</time>
      </trkpt>
      <trkpt lat="50.64208" lon="2.80649">
        <ele>16.266978</ele>
        <time>2024-07-30T16:01:40.224Z</time>
      </trkpt>
      <trkpt lat="50.64336" lon="2.80828">
        <ele>16.235454</ele>
        <time>2024-07-30T16:02:04.911Z</time>
      </trkpt>
      <trkpt lat="50.64401" lon="2.80948">
        <ele>16.432144</ele>
        <time>2024-07-30T16:02:20.512Z</time>
      </trkpt>
      <trkpt lat="50.64511" lon="2.81162">
        <ele>16.953988</ele>
        <time>2024-07-30T16:02:49.639Z</time>
      </trkpt>
      <trkpt lat="50.64613" lon="2.81292">
        <ele>17.065511</ele>
        <time>2024-07-30T16:03:09.756Z</time>
      </trkpt>
      <trkpt lat="50.64667" lon="2.81361">
        <ele>17.017766</ele>
        <time>2024-07-30T16:03:19.554Z</time>
      </trkpt>
      <trkpt lat="50.64734" lon="2.8148">
        <ele>16.86173</ele>
        <time>2024-07-30T16:03:33.632Z</time>
      </trkpt>
      <trkpt lat="50.64755" lon="2.81554">
        <ele>16.764673</ele>
        <time>2024-07-30T16:03:40.791Z</time>
      </trkpt>
      <trkpt lat="50.64763" lon="2.81571">
        <ele>16.738359</ele>
        <time>2024-07-30T16:03:42.738Z</time>
      </trkpt>
      <trkpt lat="50.64776" lon="2.81587">
        <ele>16.708297</ele>
        <time>2024-07-30T16:03:44.971Z</time>
      </trkpt>
      <trkpt lat="50.64848" lon="2.81637">
        <ele>16.646442</ele>
        <time>2024-07-30T16:03:56.235Z</time>
      </trkpt>
      <trkpt lat="50.64911" lon="2.81682">
        <ele>16.633169</ele>
        <time>2024-07-30T16:04:06.469Z</time>
      </trkpt>
      <trkpt lat="50.64931" lon="2.81709">
        <ele>16.6281</ele>
        <time>2024-07-30T16:04:10.482Z</time>
      </trkpt>
      <trkpt lat="50.65004" lon="2.81822">
        <ele>16.702177</ele>
        <time>2024-07-30T16:04:26.200Z</time>
      </trkpt>
      <trkpt lat="50.65046" lon="2.8188">
        <ele>16.767009</ele>
        <time>2024-07-30T16:04:34.908Z</time>
      </trkpt>
      <trkpt lat="50.65163" lon="2.82046">
        <ele>16.89922</ele>
        <time>2024-07-30T16:04:58.713Z</time>
      </trkpt>
      <trkpt lat="50.65276" lon="2.82213">
        <ele>17.079448</ele>
        <time>2024-07-30T16:05:21.848Z</time>
      </trkpt>
      <trkpt lat="50.65356" lon="2.82379">
        <ele>17.33951</ele>
        <time>2024-07-30T16:05:42.785Z</time>
      </trkpt>
      <trkpt lat="50.65391" lon="2.82434">
        <ele>17.489048</ele>
        <time>2024-07-30T16:05:50.957Z</time>
      </trkpt>
      <trkpt lat="50.6545" lon="2.82526">
        <ele>17.737028</ele>
        <time>2024-07-30T16:06:04.265Z</time>
      </trkpt>
      <trkpt lat="50.65489" lon="2.82596">
        <ele>17.816221</ele>
        <time>2024-07-30T16:06:13.608Z</time>
      </trkpt>
      <trkpt lat="50.65475" lon="2.82625">
        <ele>17.830648</ele>
        <time>2024-07-30T16:06:17.194Z</time>
      </trkpt>
      <trkpt lat="50.65417" lon="2.82722">
        <ele>17.881185</ele>
        <time>2024-07-30T16:06:29.526Z</time>
      </trkpt>
      <trkpt lat="50.65365" lon="2.82817">
        <ele>17.928867</ele>
        <time>2024-07-30T16:06:41.283Z</time>
      </trkpt>
      <trkpt lat="50.65318" lon="2.82909">
        <ele>17.973372</ele>
        <time>2024-07-30T16:06:52.485Z</time>
      </trkpt>
      <trkpt lat="50.65302" lon="2.82943">
        <ele>17.989366</ele>
        <time>2024-07-30T16:06:56.597Z</time>
      </trkpt>
      <trkpt lat="50.65297" lon="2.82951">
        <ele>17.993492</ele>
        <time>2024-07-30T16:06:57.648Z</time>
      </trkpt>
      <trkpt lat="50.65247" lon="2.83049">
        <ele>18.04674</ele>
        <time>2024-07-30T16:07:10.098Z</time>
      </trkpt>
      <trkpt lat="50.65151" lon="2.83204">
        <ele>18.132398</ele>
        <time>2024-07-30T16:07:30.878Z</time>
      </trkpt>
      <trkpt lat="50.65126" lon="2.83243">
        <ele>18.132398</ele>
        <time>2024-07-30T16:07:35.762Z</time>
      </trkpt>
      <trkpt lat="50.65071" lon="2.83117">
        <ele>18.132398</ele>
        <time>2024-07-30T16:07:49.181Z</time>
      </trkpt>
      <trkpt lat="50.6506" lon="2.83131">
        <ele>18.132398</ele>
        <time>2024-07-30T16:08:04.709Z</time>
      </trkpt>
    </trkseg>
  </trk>
</gpx>